[{"header": {"dx": 0.06612293990616946, "dy": 0.0552356325346848, "nx": 98, "ny": 59, "la1": 35.046912555036876, "la2": 31.78801023549047, "lo1": -121.43107172385933, "lo2": -114.95102361305473, "refTime": "2026041523", "parameterCategory": 1, "parameterNumber": 2}, "data": [9.48, 9.48, 9.84, 9.84, 10.13, 10.13, 10.72, 10.69, 10.99, 10.94, 10.87, 10.51, 12.2, 12.1, 11.71, 11.46, 11.57, 11.18, 11.62, 12.39, 12.04, 5.8, 1.91, 0.0, 0.0, 0.0, -3.82, -3.96, -3.82, -3.82, -3.96, -2.13, 0.0, 0.0, 3.82, 5.06, 5.21, 6.01, 6.64, 7.9, 8.34, 9.48, 10.09, 10.8, 12.04, 13.7, 15.36, 13.39, 13.11, 13.82, 14.27, 14.75, 15.2, 15.65, 15.65, 15.62, 15.53, 15.53, 14.94, 14.5, 14.5, 14.25, 14.25, 13.82, 13.39, 13.82, 13.75, 13.75, 14.61, 15.38, 15.12, 13.99, 13.99, 14.53, 14.84, 14.38, 13.99, 14.03, 13.19, -0.0, -0.0, 6.0, 7.78, 7.51, 7.24, 6.45, 8.53, 8.59, 8.59, 5.54, 4.39, 4.71, 4.87, 6.6, 6.6, 7.58, 7.78, 7.78, 9.48, 9.48, 9.48, 9.84, 10.13, 10.13, 10.12, 10.69, 10.42, 10.39, 10.3, 10.98, 11.04, 11.36, 12.3, 11.78, 10.56, 11.98, 11.61, 11.13, 12.89, 7.78, 2.54, 0.0, 0.0, 0.0, -1.91, -3.82, -3.82, -3.96, -4.52, -2.28, 0.0, 0.0, 2.54, 4.0, 3.99, 4.44, 5.46, 6.69, 9.5, 10.3, 10.55, 10.04, 12.39, 14.11, 14.18, 13.5, 13.82, 14.75, 14.75, 15.2, 15.2, 15.17, 15.09, 15.53, 15.38, 14.94, 14.94, 14.31, 14.25, 14.25, 13.82, 13.39, 13.59, 13.59, 13.99, 13.99, 14.81, 15.27, 15.54, 15.12, 15.12, 14.66, 14.84, 14.6, 14.55, 14.03, 13.19, -0.0, -0.0, 6.0, 7.78, 7.51, 7.24, 6.45, 8.53, 8.59, 8.59, 5.54, 4.39, 4.71, 4.87, 6.6, 6.6, 7.58, 7.78, 7.78, 9.48, 9.48, 9.48, 9.49, 9.84, 9.84, 10.12, 10.42, 10.09, 10.06, 9.76, 9.08, 10.79, 10.43, 10.73, 10.92, 11.21, 11.28, 11.56, 12.14, 10.79, 10.73, 5.6, 0.0, 0.0, 0.0, -1.52, -2.95, -3.07, -3.19, -2.09, -2.15, 0.0, 0.0, 2.33, 3.32, 4.21, 4.0, 4.78, 6.45, 8.02, 8.53, 9.69, 10.37, 12.18, 12.99, 12.39, 13.25, 14.71, 15.2, 15.2, 15.16, 15.16, 15.07, 14.64, 14.94, 14.94, 14.75, 14.31, 14.31, 14.25, 13.82, 13.59, 13.59, 13.55, 13.99, 14.6, 15.25, 15.25, 15.27, 15.12, 15.53, 15.09, 14.95, 14.66, 14.75, 15.2, 14.75, -0.0, -3.58, -0.0, 2.63, 4.81, 5.4, 5.77, 6.76, 7.15, 7.15, 7.15, 6.21, 5.02, 5.18, 5.18, 6.6, 7.58, 8.73, 9.17, 8.15, 9.09, 9.48, 9.21, 9.49, 9.84, 9.84, 10.13, 9.8, 10.09, 10.06, 9.15, 8.22, 10.01, 10.04, 10.2, 10.73, 10.73, 10.99, 10.73, 10.99, 10.5, 10.27, 7.9, 1.58, 0.0, 0.0, -1.45, -1.39, -1.39, -1.39, -1.5, 0.0, 0.0, 0.0, 2.45, 3.98, 4.6, 4.23, 4.25, 5.2, 6.94, 8.3, 9.59, 9.69, 10.81, 11.97, 13.15, 14.11, 14.71, 14.75, 14.75, 15.16, 14.71, 14.62, 14.47, 14.47, 14.5, 14.31, 14.31, 14.03, 14.47, 14.03, 14.16, 13.72, 13.72, 14.58, 15.46, 14.95, 16.27, 16.51, 15.54, 15.09, 15.39, 14.69, 14.3, 13.59, 14.75, 12.16, 4.81, -2.72, -2.2, -0.0, 2.13, 3.19, 4.4, 5.77, 7.02, 5.77, 5.54, 6.2, 5.34, 5.18, 6.2, 6.65, 8.44, 10.18, 9.84, 7.28, 9.09, 8.83, 9.21, 9.49, 9.49, 9.84, 10.13, 10.12, 10.09, 10.06, 9.08, 8.22, 8.93, 9.52, 9.81, 10.2, 10.4, 10.4, 10.4, 10.6, 11.6, 10.87, 9.08, 4.32, 0.0, 0.0, 0.0, 0.0, 0.0, 0.0, 0.0, 0.0, 1.28, 1.55, 2.35, 4.52, 4.81, 6.88, 4.17, 4.75, 6.15, 8.67, 9.97, 11.35, 12.17, 12.79, 13.88, 14.11, 14.71, 15.2, 14.75, 14.16, 14.16, 14.42, 14.25, 14.25, 14.47, 14.47, 14.47, 14.18, 14.16, 13.72, 13.7, 14.58, 14.58, 16.05, 15.96, 15.06, 16.09, 18.31, 18.48, 17.25, 17.68, 17.33, 15.65, 12.71, 11.53, 8.94, 8.66, -0.0, -2.13, -0.0, -0.0, 1.58, 3.07, 4.08, 5.4, 5.2, 6.0, 6.8, 5.02, 4.55, 6.21, 7.54, 9.17, 10.18, 9.84, 7.28, 8.81, 8.83, 9.21, 9.49, 9.49, 9.84, 10.13, 10.12, 10.09, 10.06, 8.82, 7.6, 8.53, 9.52, 9.81, 9.81, 9.81, 10.2, 9.65, 9.4, 9.52, 9.42, 9.48, 4.24, 0.0, 0.0, 0.0, 0.0, 0.0, 0.0, 1.09, 1.14, 3.25, 4.6, 5.4, 4.87, 4.71, 6.63, 3.67, 3.29, 4.81, 8.31, 10.43, 12.27, 12.79, 14.23, 14.51, 14.3, 14.3, 14.11, 13.44, 13.25, 13.25, 13.67, 14.18, 14.42, 14.42, 14.6, 14.62, 14.27, 13.82, 13.37, 14.58, 14.99, 15.53, 15.19, 14.28, 13.55, 14.91, 18.31, 20.59, 18.91, 17.56, 18.33, 18.14, 14.79, 6.9, 8.1, 9.17, 2.54, -1.98, -3.19, -1.58, -0.0, -0.0, 1.44, 4.24, 6.0, 7.32, 5.02, 4.55, 5.28, 6.65, 8.3, 10.55, 10.91, 9.17, 6.21, 8.81, 8.83, 8.83, 9.49, 9.49, 9.5, 9.84, 9.82, 9.8, 9.77, 8.82, 7.9, 8.64, 9.43, 10.55, 9.42, 10.0, 10.4, 10.04, 9.3, 9.3, 9.67, 9.81, 9.27, 3.04, 0.0, 0.0, 0.0, 0.0, 0.0, 0.0, 2.13, 3.99, 6.18, 7.36, 6.3, 2.45, 0.0, -2.82, 0.0, 2.06, 5.8, 12.79, 14.9, 15.65, 15.08, 15.41, 14.56, 13.02, 12.98, 12.79, 12.79, 13.35, 14.1, 13.99, 13.72, 14.16, 14.27, 14.27, 13.86, 13.37, 13.36, 15.15, 15.41, 13.06, 11.7, 13.26, 13.18, 14.24, 16.96, 19.33, 18.98, 16.39, 16.15, 15.19, 10.61, 7.82, 9.48, 8.05, 2.63, -1.64, -4.58, -4.75, -3.82, -1.98, -0.0, 4.38, 4.52, 3.93, 3.68, 3.68, 5.28, 7.44, 9.48, 10.3, 9.96, 8.01, 5.99, 8.56, 8.83, 8.83, 9.12, 9.22, 9.5, 9.84, 10.13, 9.8, 9.48, 8.22, 7.27, 8.22, 9.08, 10.55, 9.27, 10.23, 10.63, 10.4, 10.04, 10.0, 10.15, 11.37, 11.93, 11.18, 10.08, 8.55, 8.93, 11.62, 5.0, 1.58, 1.64, 4.4, 7.59, 8.94, 9.09, 7.27, -5.0, -12.52, -5.2, 11.18, 8.53, 10.41, 11.09, 11.52, 12.57, 13.02, 13.8, 12.95, 12.79, 11.39, 12.38, 13.25, 13.5, 13.7, 13.82, 13.86, 13.86, 13.41, 12.96, 12.07, 13.41, 14.42, 11.06, 9.23, 11.36, 13.74, 13.74, 13.99, 15.18, 17.64, 18.08, 16.03, 15.27, 13.59, 11.52, 11.44, 9.48, 2.54, -0.0, -0.0, -6.94, -8.53, -8.85, -7.51, -3.25, -0.0, -0.0, 2.54, 2.54, 2.54, 4.81, 8.38, 9.8, 9.48, 8.01, 5.99, 5.77, 8.56, 8.83, 8.83, 8.85, 9.22, 9.5, 9.84, 10.13, 10.12, 9.48, 7.93, 6.61, 7.78, 8.07, 8.64, 9.08, 9.76, 9.67, 10.04, 9.81, 10.0, 10.4, 10.92, 11.91, 11.88, 11.2, 6.64, 7.87, 9.55, 9.96, 6.17, 4.8, 10.73, 11.18, 11.06, 9.89, 7.59, -0.0, 2.82, 6.2, 5.6, 6.44, 7.82, 10.47, 11.17, 11.75, 13.97, 13.82, 13.58, 13.34, 13.48, 12.18, 13.01, 13.7, 13.82, 13.86, 13.86, 12.83, 12.37, 11.46, 12.47, 15.08, 10.75, 7.0, 8.64, 12.01, 14.71, 14.86, 14.37, 14.71, 16.09, 16.54, 16.54, 15.65, 14.55, 13.88, 11.53, 2.54, -0.0, -0.0, -0.0, -6.9, -12.27, -13.67, -12.14, -11.87, -5.8, -5.8, -3.96, -0.0, -0.0, 3.14, 6.67, 7.44, 7.44, 6.94, 4.58, 4.75, 8.43, 8.83, 8.83, 8.85, 9.22, 9.5, 9.5, 10.13, 10.12, 9.48, 8.24, 7.89, 7.32, 7.27, 8.07, 7.78, 7.78, 8.22, 8.82, 8.15, 8.24, 8.24, 9.08, 11.62, 6.2, 5.0, 6.95, 6.95, 10.52, 10.28, 10.73, -0.0, -0.0, 4.8, 6.97, 9.3, 8.58, 3.52, 5.2, 8.01, 7.95, 9.42, 9.66, 9.86, 10.4, 11.33, 11.99, 12.56, 13.2, 13.99, 13.62, 13.99, 13.88, 13.67, 13.81, 14.3, 13.82, 11.76, 10.18, 11.62, 14.75, 9.17, 6.12, 6.66, 10.05, 12.96, 15.45, 14.94, 13.75, 14.3, 14.6, 15.25, 15.53, 15.61, 15.34, 13.15, 4.24, -0.0, -0.0, -0.0, -0.0, -0.0, -13.76, -15.65, -13.86, -13.41, -13.86, -13.86, -11.99, -9.17, -0.0, -0.0, 2.45, 5.8, 7.19, 5.6, 5.6, 5.6, 8.43, 8.43, 8.83, 8.85, 9.22, 9.5, 9.5, 9.82, 9.82, 9.19, 8.87, 8.54, 8.54, 8.53, 9.59, 9.0, 9.02, 8.85, 10.79, 11.72, 12.27, 12.51, 13.44, 3.96, -0.0, 3.39, 3.25, 5.46, 8.18, 8.8, 7.27, 2.97, 3.11, 5.06, 7.68, 9.3, 8.22, 6.45, 6.97, 8.85, 10.23, 10.41, 10.16, 11.09, 10.4, 10.62, 10.55, 10.41, 11.33, 11.99, 13.19, 14.39, 14.07, 14.07, 13.65, 14.79, 15.69, 13.53, 8.0, 10.73, 6.47, 2.94, 4.86, 7.2, 8.64, 11.96, 15.38, 16.44, 15.2, 12.2, 12.39, 12.27, 13.1, 12.57, 10.75, 13.41, -0.0, -0.0, -0.0, 2.15, 2.5, -0.0, -0.0, -9.42, -15.27, -14.75, -14.75, -15.2, -14.3, -11.16, -6.94, -3.04, -0.0, 4.65, 5.4, 5.8, 4.1, 4.1, 8.18, 8.18, 8.57, 8.85, 9.22, 9.5, 9.5, 9.82, 9.82, 9.5, 9.48, 9.17, 9.17, 9.13, 9.5, 10.27, 10.88, 11.66, 12.68, 13.74, 14.28, 14.75, 14.11, 14.53, 7.44, 6.94, 3.82, 2.06, 5.95, 8.93, 8.94, 7.59, 7.59, 7.27, 8.55, 8.73, 8.58, 8.22, 8.75, 10.04, 11.2, 10.8, 10.79, 11.18, 10.18, 8.37, 9.42, 9.77, 10.12, 11.88, 10.86, 12.56, 12.22, 9.77, 7.81, 7.81, 9.77, 18.78, -2.93, -9.8, -0.0, 2.42, 4.79, 5.78, 6.74, 10.66, 15.1, 16.87, 19.91, 8.74, 5.81, 6.2, 6.6, 7.82, 5.8, -0.0, -0.0, -0.0, 3.79, 6.16, 5.09, -0.0, -0.0, -0.0, -0.0, -13.59, -17.43, -14.42, -12.27, -12.39, -11.2, -6.45, -0.0, 2.82, 4.65, 4.81, 4.1, 4.1, 8.18, 8.18, 8.85, 8.85, 9.22, 9.5, 9.21, 9.82, 9.82, 9.8, 9.48, 9.17, 9.17, 9.48, 9.94, 11.36, 12.3, 12.73, 13.35, 13.84, 14.3, 14.69, 15.01, 14.62, 13.96, 11.88, 9.48, 7.78, 8.53, 8.18, 10.38, 9.3, 8.24, 8.93, 8.93, 8.37, 8.23, 8.49, 9.48, 9.77, 10.79, 11.13, 10.7, 9.21, 8.82, 6.44, 6.97, 7.24, 9.17, 9.48, 8.85, 7.79, 6.4, 4.81, 4.67, 5.04, 9.98, 16.12, -14.39, -5.4, -0.0, 3.24, 4.79, 4.73, 6.58, 9.54, 11.09, 10.49, -0.0, -17.7, -7.07, 0.0, 0.0, 1.64, 0.0, -0.0, 1.63, 3.9, 5.65, 9.61, 8.93, -0.0, -3.9, -0.0, 3.33, -0.0, -13.91, -12.64, -7.2, -10.12, -11.53, -9.67, -3.53, -0.0, 2.45, 4.81, 4.1, 4.24, 8.18, 8.46, 8.85, 8.85, 8.85, 9.5, 9.21, 9.82, 10.12, 9.8, 9.48, 9.48, 9.48, 9.48, 10.09, 10.96, 12.11, 12.78, 13.1, 13.74, 14.25, 14.3, 14.75, 14.73, 14.27, 14.03, 13.15, 12.98, 12.89, 12.35, 10.58, 9.96, 10.38, 8.18, 8.54, 8.0, 7.47, 7.81, 8.72, 10.18, 10.52, 10.08, 10.58, 8.82, 6.95, 5.29, 5.21, 6.71, 6.97, 7.51, 7.51, 7.24, 5.4, 2.37, 4.65, 7.28, 11.06, 18.24, 20.82, -0.0, -0.0, 3.07, 5.23, 5.37, 5.65, 6.84, 7.8, 7.22, 3.53, -22.8, -12.19, -6.14, 0.0, 0.0, -0.0, 1.47, 4.75, 7.8, 9.87, 11.06, 10.87, 9.17, -11.06, -15.2, 3.79, -0.0, -4.34, -8.2, -6.47, -3.24, -7.93, -6.2, -2.71, -0.0, 2.06, 4.1, 4.1, 3.56, 8.2, 8.2, 8.46, 8.85, 8.85, 9.5, 9.5, 9.82, 10.12, 9.8, 9.48, 9.48, 9.78, 9.8, 10.09, 10.51, 11.75, 12.41, 13.26, 13.41, 13.21, 13.8, 14.29, 14.3, 14.3, 13.67, 13.37, 13.37, 13.19, 13.34, 12.52, 10.28, 10.96, 9.55, 8.82, 8.03, 7.59, 7.47, 10.27, 9.6, 10.22, 10.62, 9.13, 6.95, 5.06, 3.65, 3.65, 6.17, 6.44, 6.71, 8.22, 6.71, 6.44, 5.63, 5.9, 8.58, 10.79, 13.59, 17.39, 12.33, 4.1, 5.11, 6.88, 7.93, 6.6, 6.8, 7.4, 9.42, 11.38, 17.99, 0.0, -2.66, -2.91, -0.0, 1.21, 5.23, 7.8, 9.92, 12.01, 12.9, 14.19, 14.57, 15.65, 13.41, -0.0, -0.0, -0.0, -0.0, -2.65, -0.0, -0.0, -2.2, -1.91, -0.0, -0.0, 3.56, 3.56, 3.56, 8.2, 8.2, 8.2, 8.58, 8.85, 9.5, 9.5, 9.82, 10.12, 9.8, 9.77, 9.48, 9.78, 10.43, 10.09, 10.65, 11.06, 11.6, 12.53, 12.78, 13.08, 13.19, 13.8, 14.75, 14.73, 14.6, 13.5, 13.7, 13.37, 13.41, 13.41, 12.07, 10.28, 10.58, 8.82, 6.79, 7.81, 8.72, 10.18, 10.14, 9.03, 7.81, 7.27, 5.06, 5.06, 3.49, 3.65, 5.29, 6.17, 7.27, 6.71, 6.97, 8.22, 7.59, 8.05, 9.13, 10.14, 11.46, 13.56, 11.06, 7.41, 7.44, 8.22, 9.42, 8.53, 9.17, 9.17, 11.87, 12.57, 18.26, 11.04, -2.07, -18.78, -0.0, 4.47, 8.2, 12.01, 12.47, 13.79, 15.25, 15.54, 16.85, 16.99, 13.19, -0.0, 1.58, 3.68, 1.61, -0.0, -0.0, -0.0, -1.61, -0.0, -0.0, 1.55, 2.93, 3.04, 3.04, 8.2, 8.2, 8.2, 8.58, 8.86, 9.21, 9.21, 9.82, 10.12, 9.8, 9.77, 9.48, 10.11, 10.43, 10.41, 10.73, 10.88, 11.47, 11.82, 12.72, 12.89, 13.17, 13.35, 13.86, 14.21, 14.06, 14.64, 14.72, 14.75, 14.27, 13.37, 12.91, 11.12, 11.18, 7.44, 7.21, 7.56, 8.58, 9.55, 9.13, 7.87, 4.96, 5.29, 4.96, 5.06, 5.06, 5.29, 6.42, 7.27, 7.27, 7.27, 8.38, 8.73, 8.38, 8.93, 9.2, 9.75, 9.86, 10.48, 9.17, 8.85, 8.59, 8.93, 9.6, 9.96, 9.2, 10.4, 10.4, 12.87, 17.1, 15.49, 0.0, 2.22, 6.18, 8.48, 11.89, 13.59, 15.36, 16.11, 15.62, 15.16, 15.14, 15.19, 9.49, 3.93, 3.19, 3.32, 3.14, 3.25, 3.36, 1.83, -0.0, -1.38, -0.0, 1.83, 1.5, 3.44, 3.44, 8.2, 8.2, 8.2, 8.86, 8.86, 9.21, 9.21, 9.82, 10.12, 9.8, 9.77, 10.09, 10.11, 10.43, 10.41, 10.37, 11.16, 11.61, 11.82, 12.24, 12.61, 13.17, 13.26, 13.41, 13.33, 14.28, 15.2, 15.17, 15.08, 14.69, 14.1, 12.6, 11.99, 11.18, 9.86, 8.03, 6.95, 8.55, 8.8, 7.87, 5.9, 5.9, 5.9, 6.17, 5.29, 6.42, 6.7, 8.03, 8.03, 8.82, 8.82, 8.03, 8.03, 8.03, 8.03, 8.55, 8.55, 8.93, 8.59, 8.59, 10.48, 10.09, 9.86, 10.18, 10.58, 9.74, 9.39, 10.28, 12.07, 15.65, 20.12, 16.87, 12.59, 13.86, 12.33, 13.59, 14.88, 15.84, 16.87, 15.02, 13.24, 12.64, 13.74, 6.0, 4.93, 3.04, 3.14, 3.14, 2.91, 4.52, 4.52, 1.61, -0.0, -0.0, -0.0, 1.83, 1.77, 1.77, 7.95, 8.22, 8.49, 8.86, 8.86, 9.21, 9.21, 9.5, 9.82, 9.8, 10.09, 10.09, 10.11, 10.43, 10.09, 10.58, 10.23, 10.79, 10.55, 11.33, 12.89, 14.23, 13.44, 13.15, 12.48, 13.77, 12.51, 12.87, 12.72, 12.03, 11.28, 10.55, 11.5, 12.07, 10.6, 9.6, 8.55, 10.52, 10.38, 9.6, 7.68, 8.03, 7.9, 6.71, 8.22, 8.38, 8.38, 9.2, 9.2, 9.2, 9.2, 8.03, 8.03, 8.03, 7.27, 7.27, 8.55, 8.59, 9.27, 10.09, 10.68, 11.18, 10.75, 9.77, 9.83, 9.39, 9.39, 10.28, 10.73, 14.3, 17.13, 17.53, 20.04, 21.73, 15.56, 14.84, 15.38, 15.69, 15.19, 13.95, 12.01, 12.33, 9.35, 5.6, 5.28, 4.71, 3.25, 4.1, 2.91, 3.85, 4.52, 4.24, 2.62, 1.28, 1.72, 2.02, 1.96, 1.96, 8.22, 8.22, 8.22, 8.86, 8.86, 8.86, 9.5, 9.5, 9.82, 9.8, 10.09, 10.09, 10.39, 10.43, 10.43, 10.06, 10.01, 9.66, 10.66, 11.02, 12.98, 14.01, 13.59, 12.2, 11.77, 12.18, 11.85, 11.5, 9.8, 0.0, 0.0, 7.51, 10.8, 12.07, 11.4, 10.41, 10.41, 10.73, 10.58, 9.89, 9.86, 9.32, 9.7, 9.7, 9.48, 9.97, 9.2, 9.75, 9.75, 9.33, 7.68, 6.42, 6.7, 6.98, 6.95, 6.95, 8.59, 8.02, 8.93, 10.88, 10.75, 10.62, 10.62, 10.73, 10.28, 10.28, 10.18, 11.18, 12.07, 13.36, 15.81, 18.42, 22.9, 26.05, 20.98, 16.54, 16.09, 16.09, 11.7, 11.06, 11.06, 11.7, 9.73, 6.65, 6.88, 6.0, 4.24, 5.27, 4.1, 3.6, 4.24, 4.98, 5.27, 5.27, 4.38, 3.69, 3.58, 3.58, 8.22, 8.22, 8.59, 8.59, 8.59, 8.86, 9.5, 9.5, 9.5, 10.12, 10.42, 10.09, 10.39, 10.43, 10.43, 10.35, 10.3, 10.01, 9.73, 10.66, 12.03, 13.41, 12.86, 12.05, 12.41, 12.79, 13.25, 12.71, 12.07, 11.62, 5.2, 8.22, 11.62, 11.62, 11.4, 10.96, 10.96, 10.73, 10.73, 11.06, 11.06, 10.75, 10.27, 11.09, 10.68, 10.35, 9.33, 9.75, 9.75, 8.82, 6.95, 5.29, 5.52, 6.98, 6.7, 6.69, 8.41, 8.35, 10.09, 10.75, 11.06, 11.18, 10.73, 11.18, 10.28, 10.62, 10.73, 12.07, 12.58, 13.27, 14.84, 17.71, 23.09, 25.03, 19.5, 16.91, 17.88, 14.3, 9.17, 9.73, 11.06, 10.18, 9.6, 7.79, 6.88, 6.65, 6.0, 5.45, 4.98, 3.47, 3.6, 4.98, 6.95, 7.44, 6.73, 4.66, 4.66, 4.66, 8.22, 8.22, 8.59, 8.59, 8.87, 8.87, 9.21, 9.5, 9.8, 10.12, 10.42, 10.42, 10.39, 10.39, 10.43, 10.7, 10.65, 10.73, 11.09, 12.05, 12.9, 12.96, 12.39, 10.82, 11.07, 12.42, 13.57, 12.71, 12.03, 12.01, 11.95, 11.62, 11.62, 11.4, 11.4, 11.02, 11.46, 11.62, 11.18, 11.18, 11.06, 10.75, 10.75, 11.09, 10.27, 9.6, 10.18, 9.33, 9.55, 7.27, 5.29, 5.52, 5.52, 6.98, 6.7, 6.98, 7.65, 8.85, 10.09, 10.32, 10.22, 10.73, 11.12, 10.91, 10.84, 11.06, 11.46, 10.04, 9.84, 12.27, 13.58, 18.38, 22.27, 24.14, 4.4, 3.96, -0.0, -0.0, 2.94, 6.34, 7.76, 10.76, 9.35, 8.83, 7.1, 6.0, 6.0, 5.81, 5.48, 4.48, 4.48, 6.9, 8.78, 9.42, 7.58, 4.52, 3.2, 3.2, 7.96, 7.96, 8.22, 8.87, 8.87, 8.87, 8.87, 9.5, 9.8, 10.12, 10.42, 10.42, 10.73, 10.39, 10.7, 10.7, 11.01, 11.01, 11.69, 12.65, 13.05, 12.5, 11.95, 11.97, 11.5, 11.69, 12.39, 13.23, 12.58, 12.39, 12.03, 11.62, 11.62, 11.51, 11.46, 11.46, 11.46, 11.62, 11.62, 11.62, 11.51, 11.18, 11.18, 10.68, 10.09, 10.0, 10.18, 8.72, 7.51, 5.29, 5.29, 5.52, 6.7, 6.98, 6.7, 6.7, 7.27, 9.17, 11.26, 8.58, 9.33, 10.28, 11.55, 11.53, 11.18, 10.6, 7.44, 6.5, 6.97, 8.85, 10.82, 15.99, -25.86, -13.44, -7.2, -9.39, -6.94, -3.69, -3.33, -0.0, 3.81, 8.68, 7.76, 7.76, 8.57, 6.88, 6.2, 5.81, 6.17, 7.38, 5.8, 8.23, 10.12, 10.12, 7.58, 4.52, 3.1, 3.1, 7.57, 7.57, 7.96, 8.51, 8.87, 8.87, 8.87, 9.8, 9.8, 9.8, 10.42, 10.42, 10.73, 10.73, 10.7, 10.7, 11.04, 11.36, 11.36, 11.9, 12.38, 12.12, 11.67, 12.01, 12.21, 12.38, 12.18, 12.74, 12.72, 12.58, 12.24, 11.91, 11.62, 11.18, 11.18, 11.06, 11.18, 11.18, 11.62, 11.62, 11.51, 11.18, 11.18, 10.68, 10.68, 10.27, 11.62, 9.58, 7.59, 5.75, 5.98, 5.75, 6.7, 6.7, 5.29, 6.42, 6.58, 9.16, 10.79, 9.67, 8.37, 9.03, 11.06, 11.18, 8.73, 6.4, 5.4, 6.21, 6.71, 8.49, 10.46, 20.56, -0.0, -28.16, -16.54, -11.16, -7.44, -5.8, -3.58, -2.5, -0.0, 4.52, 6.6, 7.1, 8.18, 7.32, 7.32, 6.6, 7.38, 8.93, 7.69, 8.91, 9.8, 9.8, 7.1, 4.52, 4.38, 4.38, 7.57, 7.57, 8.23, 8.23, 8.87, 8.87, 8.87, 9.5, 9.8, 9.8, 10.12, 10.42, 10.73, 10.73, 10.73, 11.04, 11.04, 11.01, 11.01, 11.53, 11.82, 12.26, 12.12, 12.08, 12.22, 12.37, 12.63, 12.63, 12.63, 12.96, 12.68, 12.81, 12.47, 11.62, 11.18, 10.73, 11.18, 11.18, 11.18, 11.62, 11.51, 11.18, 10.75, 10.46, 10.46, 10.05, 11.35, 10.28, 9.13, 8.8, 8.24, 8.85, 6.44, 5.52, 5.29, 6.42, 7.27, 7.56, 9.08, 9.77, 9.3, 8.4, 8.54, 8.73, 6.76, 4.9, 5.4, 6.7, 7.95, 10.88, 13.41, 15.65, 21.9, 27.72, -27.72, -19.77, -14.88, -11.06, -6.4, -6.9, -5.15, -0.0, -0.0, 4.24, 6.6, 8.18, 7.32, 6.6, 8.06, 9.61, 10.43, 9.8, 10.12, 10.43, 6.0, 4.87, 4.87, 4.87, 7.57, 7.57, 8.23, 8.23, 8.87, 8.87, 8.87, 9.5, 9.5, 9.8, 10.12, 10.42, 10.42, 10.73, 10.73, 10.7, 10.7, 11.01, 11.01, 11.01, 11.53, 11.82, 12.11, 11.99, 12.25, 12.08, 12.14, 12.3, 12.21, 12.46, 12.63, 12.81, 12.35, 12.02, 11.62, 11.18, 10.73, 10.73, 11.18, 11.18, 11.06, 11.18, 10.27, 10.46, 10.05, 10.18, 11.4, 10.23, 9.77, 9.76, 10.0, 7.15, 6.44, 6.21, 5.75, 6.7, 7.27, 7.87, 7.27, 9.08, 10.04, 10.48, 8.21, 7.47, 6.5, 5.86, 5.6, 6.94, 10.99, 11.72, 12.0, 14.3, 16.99, 24.14, 27.27, -26.37, -21.77, -17.19, -9.08, -9.08, -8.38, -7.13, -0.0, 2.28, 4.52, 7.0, 7.54, 8.57, 8.85, 9.33, 10.43, 10.99, 10.01, 10.18, 6.2, 5.63, 6.2, 6.2, 7.85, 7.85, 7.85, 8.23, 8.59, 8.87, 9.17, 9.17, 9.5, 9.8, 10.12, 10.12, 10.42, 10.73, 10.73, 10.7, 10.7, 11.01, 11.01, 11.01, 11.32, 11.82, 11.44, 11.72, 11.99, 11.85, 11.99, 12.22, 12.37, 12.53, 12.68, 12.24, 12.2, 11.91, 11.88, 11.57, 11.55, 11.11, 10.73, 10.28, 11.18, 11.18, 10.68, 9.6, 9.75, 10.96, 11.12, 10.23, 9.83, 9.83, 8.38, 6.5, 5.45, 4.6, 6.2, 6.87, 9.2, 8.23, 6.64, 7.9, 10.8, 10.38, 10.27, 8.15, 6.94, 5.64, 6.7, 10.37, 11.33, 12.3, 12.9, 13.41, 14.75, 16.99, 20.12, 19.28, -23.32, -19.67, -9.76, -9.04, -9.67, -10.12, -6.4, -0.0, 2.28, 4.66, 7.76, 9.09, 9.89, 8.85, 9.33, 10.99, 10.46, 9.61, 8.06, 7.1, 8.31, 8.31, 7.59, 7.59, 7.85, 8.23, 8.23, 8.87, 9.17, 9.17, 9.5, 9.8, 10.12, 10.12, 10.42, 10.73, 10.73, 10.7, 10.7, 10.65, 10.65, 10.65, 10.96, 10.96, 11.26, 11.56, 11.99, 12.25, 11.85, 11.99, 11.57, 11.8, 11.95, 11.66, 11.61, 11.76, 11.91, 11.44, 11.4, 11.11, 11.11, 10.73, 11.18, 11.51, 10.27, 9.75, 9.33, 10.18, 10.22, 10.28, 9.83, 9.55, 7.15, 5.95, 6.44, 5.98, 6.87, 8.22, 8.94, 7.59, 6.58, 7.9, 10.0, 10.7, 10.7, 9.66, 6.45, 7.28, 10.09, 10.94, 11.45, 12.9, 14.3, 14.3, 13.36, 13.8, 15.14, 19.2, 16.75, -19.22, -13.86, -10.04, -10.27, -10.4, -10.73, -5.6, -0.0, 2.72, 6.6, 10.02, 10.18, 8.85, 8.85, 11.06, 10.89, 10.19, 10.76, 9.09, 8.83, 8.83, 7.59, 7.59, 7.59, 8.23, 8.23, 8.87, 8.87, 9.17, 9.5, 9.5, 9.8, 10.12, 10.12, 10.73, 10.73, 10.7, 10.35, 10.35, 10.65, 10.65, 10.96, 10.59, 10.88, 11.56, 11.56, 11.46, 11.73, 11.73, 11.57, 11.8, 11.38, 11.52, 11.66, 11.61, 11.33, 11.28, 11.44, 10.96, 11.11, 10.65, 11.18, 11.06, 10.75, 10.8, 10.04, 8.99, 9.32, 9.83, 5.29, 5.7, 5.43, 5.95, 6.77, 6.69, 6.87, 8.24, 9.66, 8.22, 7.59, 8.59, 10.0, 10.6, 11.03, 9.5, 7.41, 9.17, 10.94, 10.94, 11.4, 11.62, 13.79, 14.51, 13.63, 13.19, 14.07, 18.03, 21.9, 15.99, -4.55, -16.48, -11.71, -9.75, -11.62, -10.04, -4.1, -0.0, 4.98, 9.22, 9.73, 10.75, 11.2, 12.37, 11.88, 11.38, 12.01, 10.87, 9.61, 9.61, 7.59, 7.59, 7.59, 7.59, 8.23, 8.53, 8.87, 8.87, 9.5, 9.8, 9.8, 9.8, 10.12, 10.73, 10.73, 10.39, 10.35, 10.35, 10.3, 10.3, 10.59, 10.59, 10.88, 10.88, 11.17, 11.46, 11.46, 11.73, 11.57, 11.57, 11.8, 11.3, 11.52, 11.03, 11.18, 11.33, 11.21, 10.7, 10.91, 10.66, 10.73, 10.73, 11.02, 9.6, 8.59, 10.09, 10.6, 6.42, 5.45, 6.86, 7.9, 7.74, 6.77, 7.27, 8.24, 8.93, 8.18, 9.3, 9.67, 9.3, 10.05, 10.6, 10.55, 8.75, 9.08, 10.01, 10.73, 12.42, 10.46, 9.76, 10.18, 13.09, 16.01, 16.92, 16.27, 19.16, 19.67, 14.78, 9.71, -3.31, -20.2, -12.39, -11.46, -12.27, -8.22, -0.0, 4.38, 10.12, 11.33, 13.19, 13.19, 14.38, 14.38, 12.73, 12.36, 12.33, 8.65, 8.65, 7.59, 7.59, 7.59, 7.59, 7.96, 8.53, 8.87, 8.87, 9.19, 9.48, 9.8, 9.8, 9.8, 10.11, 10.39, 10.06, 10.01, 10.01, 10.3, 10.3, 10.59, 10.59, 10.88, 10.68, 10.99, 11.17, 11.46, 11.33, 11.57, 11.57, 11.57, 11.57, 11.3, 11.3, 11.03, 10.68, 10.6, 10.78, 10.28, 10.47, 10.65, 10.73, 10.62, 10.18, 10.18, 11.45, 11.09, 8.07, 7.68, 8.35, 8.47, 8.55, 8.72, 8.58, 8.73, 9.32, 8.55, 10.4, 9.6, 10.0, 10.27, 10.88, 10.55, 10.16, 10.55, 10.4, 10.4, 11.6, 10.35, 9.83, 8.49, 11.06, 14.84, 22.49, 21.01, 17.88, 16.54, 13.56, 9.61, 4.27, -11.27, -19.22, -12.96, -13.41, -13.86, -14.3, 14.3, 13.88, 13.57, 14.31, 14.64, 14.6, 15.05, 15.04, 13.58, 11.38, 8.43, 8.43, 7.59, 7.59, 7.59, 7.59, 8.24, 8.24, 8.24, 8.87, 9.19, 9.48, 9.48, 9.48, 9.8, 9.78, 10.06, 9.72, 10.01, 10.01, 9.94, 9.94, 10.23, 10.37, 10.68, 10.68, 10.99, 10.99, 10.79, 10.52, 11.77, 10.4, 11.2, 11.2, 11.47, 11.06, 11.21, 10.95, 10.43, 10.6, 10.35, 10.28, 10.04, 10.73, 10.73, 10.62, 10.62, 11.06, 10.6, 9.6, 9.6, 10.0, 9.38, 8.99, 9.38, 9.6, 9.2, 8.93, 9.7, 10.0, 10.18, 9.89, 11.61, 10.88, 10.62, 10.38, 11.03, 10.91, 10.2, 11.46, 12.35, 11.45, 9.63, 8.72, 11.53, 17.58, 28.72, 19.67, 13.33, 9.7, 9.8, 9.48, 2.59, -14.88, -15.65, -14.11, -13.19, -10.75, 0.0, 13.99, 14.3, 13.86, 13.86, 14.3, 14.75, 15.05, 13.59, 9.77, 6.34, 6.34, 7.59, 7.59, 7.59, 7.87, 8.24, 8.24, 8.24, 8.58, 8.58, 9.48, 9.48, 9.48, 9.48, 9.78, 9.46, 9.72, 10.01, 9.66, 9.94, 9.71, 10.01, 10.01, 10.31, 10.31, 10.61, 10.61, 10.61, 10.61, 10.67, 11.41, 10.26, 10.15, 10.15, 10.65, 10.94, 10.68, 10.85, 10.32, 10.5, 10.28, 10.04, 10.65, 10.73, 10.65, 11.09, 10.65, 10.47, 10.08, 10.28, 10.28, 9.4, 9.4, 10.21, 9.6, 9.2, 9.6, 9.6, 9.32, 9.45, 9.86, 10.05, 10.05, 11.18, 10.05, 10.6, 10.91, 10.65, 10.28, 11.62, 12.83, 11.21, 10.0, 11.13, 15.87, 28.1, 23.45, 14.23, 10.4, 10.99, 11.44, 10.05, -0.0, -16.54, -15.36, -13.23, -7.4, 0.0, 6.8, 14.03, 13.41, 12.96, 13.23, 13.67, 14.03, 8.58, 6.8, 3.69, 3.69, 7.59, 7.59, 7.33, 7.6, 7.6, 7.96, 8.24, 8.24, 8.58, 9.17, 9.48, 9.17, 9.17, 9.46, 9.46, 9.46, 9.42, 9.66, 9.71, 9.71, 10.01, 10.01, 10.31, 10.31, 10.31, 10.61, 10.61, 10.61, 10.79, 10.67, 10.4, 10.26, 10.09, 10.28, 10.28, 10.23, 10.55, 10.4, 10.17, 9.96, 10.18, 10.22, 10.73, 10.73, 10.65, 10.22, 10.22, 10.22, 10.47, 10.47, 10.18, 10.6, 9.6, 9.2, 9.2, 9.2, 9.2, 8.8, 9.2, 10.05, 11.62, 10.38, 10.6, 10.6, 9.63, 10.41, 10.41, 10.65, 11.62, 12.35, 11.87, 12.04, 12.39, 15.2, 23.64, 25.7, 18.05, 14.44, 12.93, 13.7, 14.39, 7.4, -0.0, -16.99, -13.23, -5.98, 0.0, 5.64, 13.57, 13.41, 12.52, 12.52, 12.52, 11.16, 2.2, 4.05, 3.69, 3.69, 7.33, 7.33, 7.33, 7.6, 7.6, 7.96, 7.96, 8.24, 8.58, 8.87, 9.17, 9.17, 9.17, 9.46, 9.46, 9.13, 9.42, 9.42, 9.08, 9.37, 9.71, 10.01, 10.01, 10.31, 10.51, 10.51, 10.79, 10.79, 10.79, 10.94, 10.8, 10.4, 10.53, 10.09, 9.9, 9.67, 10.04, 10.4, 10.17, 10.38, 10.28, 10.04, 10.28, 10.73, 10.28, 10.28, 9.83, 10.28, 10.22, 10.47, 10.18, 10.6, 9.6, 9.2, 9.6, 8.99, 8.99, 8.99, 8.99, 9.63, 9.21, 9.97, 9.2, 10.6, 10.6, 10.6, 10.41, 10.84, 10.91, 11.78, 12.27, 13.32, 14.19, 15.59, 19.62, 21.27, 20.16, 17.92, 16.79, 17.88, 16.54, 16.99, -0.0, -4.81, -15.65, -5.48, 0.0, 10.43, 13.41, 12.52, 12.35, 12.35, 11.2, 3.04, -0.0, -0.0, 2.09, 2.09, 7.33, 7.33, 7.33, 7.6, 7.6, 7.96, 7.96, 8.24, 8.58, 8.58, 9.17, 9.17, 9.17, 9.17, 9.46, 9.13, 9.42, 9.42, 9.08, 9.37, 9.37, 9.66, 10.01, 10.01, 10.51, 10.51, 10.51, 10.79, 10.79, 10.79, 10.79, 10.67, 10.52, 10.13, 10.0, 9.65, 9.43, 9.81, 9.81, 10.0, 10.28, 10.47, 10.28, 9.83, 9.83, 9.83, 9.83, 10.28, 10.22, 10.47, 10.41, 10.05, 9.2, 9.8, 8.99, 8.6, 8.6, 8.99, 8.99, 9.75, 9.63, 8.37, 10.18, 9.97, 10.04, 11.06, 9.97, 10.47, 11.11, 11.11, 12.83, 12.88, 15.53, 16.79, 19.18, 17.4, 17.4, 19.62, 21.46, 19.07, 10.66, -11.38, -11.6, -4.1, -4.24, 12.96, 12.96, 12.14, 11.62, 12.3, 11.6, 10.37, 7.78, 2.54, -0.0, -0.0, 1.96, 1.96, 6.94, 6.94, 7.33, 7.6, 7.6, 7.6, 7.96, 8.24, 8.24, 8.58, 8.87, 9.17, 9.17, 9.17, 9.46, 9.13, 9.42, 9.08, 9.08, 9.37, 9.37, 9.37, 9.66, 9.66, 9.86, 10.13, 10.13, 10.13, 10.13, 10.4, 10.4, 10.4, 10.67, 10.52, 10.24, 10.0, 10.0, 9.81, 9.58, 10.0, 9.96, 10.47, 10.22, 11.18, 9.39, 9.83, 10.28, 10.28, 10.22, 10.41, 10.05, 9.6, 9.4, 9.38, 8.8, 8.8, 9.13, 8.72, 9.42, 9.33, 9.33, 9.16, 10.14, 9.76, 10.66, 11.06, 9.77, 10.28, 10.73, 10.73, 11.62, 12.88, 15.53, 18.41, 20.96, 17.88, 13.86, 16.99, 22.35, 21.68, 10.41, -15.65, -11.16, -7.24, -2.37, -0.0, 6.0, 10.37, 11.12, 11.6, 11.12, 9.48, 4.98, -0.0, -0.0, -0.0, 2.63, 2.2, 6.94, 6.94, 7.33, 7.6, 7.6, 7.6, 7.96, 7.96, 8.24, 8.58, 8.87, 8.87, 8.87, 9.17, 9.13, 9.13, 9.13, 9.08, 9.08, 9.08, 9.37, 9.37, 9.37, 9.66, 9.86, 9.86, 10.13, 10.13, 10.13, 10.13, 10.4, 10.4, 10.67, 10.27, 10.4, 10.13, 10.27, 10.0, 10.17, 9.6, 9.96, 10.18, 10.22, 11.62, 9.83, 9.83, 10.28, 10.28, 10.2, 10.05, 9.4, 8.99, 9.2, 9.2, 8.8, 8.72, 8.82, 8.82, 8.99, 9.42, 9.64, 9.16, 10.58, 9.32, 9.77, 10.73, 10.73, 10.28, 10.73, 11.18, 11.11, 12.79, 14.6, 17.23, 23.67, 22.74, 14.75, 15.02, 19.17, 18.38, 13.59, 15.2, -5.64, -6.6, -2.72, -0.0, 6.2, 11.09, 12.45, 11.5, 9.48, 8.05, 4.98, -0.0, -0.0, -0.0, 4.24, 2.63, 6.94, 6.94, 6.94, 7.6, 7.6, 7.6, 7.96, 7.96, 8.24, 8.24, 8.56, 8.87, 8.87, 8.56, 8.85, 8.85, 8.85, 8.82, 9.08, 9.08, 9.37, 9.37, 9.37, 9.37, 9.86, 9.86, 9.86, 10.13, 10.13, 10.13, 10.4, 10.24, 10.24, 10.52, 10.4, 10.65, 10.13, 10.27, 10.43, 9.77, 9.96, 9.85, 10.04, 9.83, 11.62, 9.79, 10.73, 10.66, 9.75, 9.4, 8.8, 8.8, 8.55, 8.82, 8.82, 8.82, 8.4, 8.63, 9.06, 9.24, 9.64, 9.21, 7.56, 9.83, 10.28, 10.28, 9.83, 10.28, 10.66, 11.11, 11.11, 11.55, 13.72, 15.53, 19.29, 25.64, 24.04, 15.41, 11.44, 10.52, 10.73, 9.48, 1.66, -0.0, -0.0, -0.0, 6.4, 11.8, 12.27, 11.09, 8.31, 6.2, 5.15, 3.36, -0.0, 4.24, 4.1, 4.24, 6.94, 6.94, 7.22, 7.6, 7.6, 7.6, 7.6, 7.96, 7.96, 8.24, 8.24, 8.56, 8.56, 8.56, 8.85, 8.85, 8.85, 8.53, 8.82, 9.08, 9.08, 9.37, 9.37, 9.37, 9.86, 9.86, 9.86, 9.86, 10.13, 10.13, 10.13, 9.86, 9.86, 10.13, 10.13, 10.4, 10.53, 10.38, 10.27, 10.01, 10.18, 9.92, 10.08, 10.23, 9.83, 11.18, 10.12, 9.85, 9.13, 9.24, 8.55, 8.82, 8.82, 8.4, 8.4, 8.63, 8.19, 8.63, 8.8, 9.24, 9.24, 9.34, 10.73, 9.83, 9.83, 10.28, 9.83, 10.73, 10.2, 11.11, 11.35, 11.55, 12.96, 13.86, 15.53, 19.25, 27.78, 26.74, 9.8, 7.78, 14.75, 8.57, 6.73, 5.45, 2.2, -0.0, 6.4, 10.43, 12.65, 11.44, 8.58, 6.4, 5.15, 3.36, 4.24, 4.1, 4.1, 4.1, 6.96, 6.96, 7.22, 7.22, 7.6, 7.6, 7.6, 7.96, 8.24, 8.24, 8.24, 8.56, 8.56, 8.85, 8.85, 8.85, 8.53, 8.53, 8.82, 9.08, 9.08, 9.08, 9.37, 9.37, 9.59, 9.86, 9.86, 9.86, 9.86, 10.13, 9.76, 9.86, 9.86, 10.13, 9.97, 10.26, 10.26, 10.53, 10.38, 10.52, 10.25, 10.41, 9.97, 10.12, 10.68, 10.73, 10.14, 9.54, 8.91, 8.91, 8.91, 8.67, 8.67, 8.67, 8.24, 8.24, 7.94, 8.38, 8.82, 8.8, 9.35, 8.94, 8.49, 9.83, 9.83, 9.74, 10.14, 10.28, 10.2, 10.91, 11.35, 11.18, 12.96, 12.44, 14.75, 15.93, 20.34, 26.91, 25.19, 18.66, 15.28, 12.64, 11.88, 10.3, 6.9, 3.36, 3.36, 8.58, 12.65, 11.44, 6.4, 2.81, 5.15, 6.0, 4.1, 4.1, 4.1, 4.1, 6.96, 6.96, 6.96, 6.96, 7.6, 7.6, 7.6, 7.33, 7.89, 8.24, 8.24, 8.24, 8.56, 8.85, 8.85, 8.85, 8.53, 8.53, 8.82, 8.82, 9.08, 9.08, 9.37, 9.37, 9.59, 9.59, 9.86, 9.86, 9.86, 9.76, 9.76, 9.86, 9.86, 10.13, 9.97, 10.26, 10.26, 10.53, 10.79, 10.27, 10.52, 10.25, 10.45, 10.58, 10.69, 11.18, 10.73, 9.8, 9.26, 8.82, 8.82, 8.82, 8.82, 8.82, 8.38, 8.38, 7.94, 7.94, 8.46, 8.91, 8.9, 8.94, 8.94, 10.73, 9.83, 9.7, 9.89, 10.58, 9.97, 10.91, 11.11, 10.73, 11.57, 12.71, 13.15, 15.2, 17.59, 22.48, 28.47, 24.39, 21.19, 19.99, 16.59, 16.02, 10.43, -0.0, 4.52, 10.12, 12.79, 10.12, 3.36, 3.36, 6.2, 6.0, 5.8, 3.14, 3.14, 3.14, 6.96, 6.96, 6.96, 6.96, 6.96, 7.33, 7.33, 7.61, 7.61, 7.95, 7.95, 8.24, 8.85, 8.85, 8.85, 8.53, 8.53, 8.53, 8.82, 8.82, 9.08, 9.08, 9.08, 9.71, 9.94, 9.94, 9.59, 9.86, 9.86, 9.76, 9.58, 9.58, 9.86, 9.86, 9.97, 9.97, 10.26, 10.53, 10.4, 10.27, 10.52, 10.32, 10.45, 10.6, 10.69, 10.69, 10.73, 10.28, 9.81, 9.81, 9.28, 9.28, 8.84, 8.84, 8.84, 8.38, 8.38, 8.02, 8.02, 8.46, 8.49, 8.94, 8.94, 8.49, 10.73, 9.7, 9.46, 9.16, 9.75, 10.66, 11.62, 10.22, 10.96, 12.27, 13.19, 14.3, 16.04, 18.11, 21.79, 24.62, 26.7, 25.98, 24.2, 17.98, 14.13, -0.0, -0.0, 12.27, 12.27, 7.44, -0.0, 6.94, 7.19, 5.8, 5.8, 2.45, 2.45, 2.45, 6.96, 6.96, 6.96, 6.96, 6.96, 7.61, 7.61, 7.61, 7.61, 7.61, 7.95, 7.95, 8.24, 8.53, 8.53, 8.53, 8.53, 8.53, 8.53, 8.82, 8.82, 9.08, 9.08, 9.08, 9.94, 9.94, 9.59, 9.86, 9.86, 9.3, 9.58, 9.58, 9.86, 9.86, 9.97, 9.97, 10.26, 10.09, 10.4, 10.68, 10.52, 10.75, 10.68, 10.45, 10.6, 10.7, 10.73, 10.28, 10.28, 9.81, 9.81, 9.36, 9.36, 8.91, 8.91, 8.47, 8.47, 8.02, 8.02, 8.05, 8.49, 8.49, 8.94, 9.39, 8.94, 10.28, 9.83, 8.94, 9.83, 10.28, 10.23, 10.68, 11.57, 12.45, 13.36, 13.86, 15.2, 16.05, 17.67, 18.37, 23.78, 28.79, 27.6, 22.57, -0.0, -11.7, -0.0, 14.39, 12.79, -0.0, 6.0, 6.7, 5.6, 5.6, 2.45, 2.37, 2.37, 2.37, 6.7, 6.7, 6.7, 6.96, 6.97, 7.61, 7.61, 7.61, 7.61, 7.61, 7.95, 7.95, 8.24, 8.24, 8.53, 8.53, 8.53, 8.53, 8.82, 8.82, 8.82, 9.08, 9.08, 9.08, 9.37, 9.94, 9.59, 9.86, 9.86, 9.3, 9.58, 9.58, 9.86, 9.86, 9.97, 9.97, 10.26, 10.09, 10.4, 10.27, 10.52, 10.52, 10.68, 10.89, 10.6, 10.7, 10.73, 10.28, 10.28, 10.25, 9.81, 9.36, 9.36, 8.91, 8.47, 8.47, 8.47, 8.05, 8.05, 8.05, 8.05, 8.49, 8.49, 8.94, 8.94, 9.83, 9.39, 9.39, 9.83, 9.77, 10.23, 11.12, 11.57, 12.47, 12.96, 13.41, 14.3, 15.15, 15.91, 16.12, 17.94, 24.2, 26.98, 26.37, -23.25, -18.33, 15.65, 14.75, 9.8, -0.0, 3.96, 3.96, 2.93, 5.4, 2.37, -0.0, -0.0, -0.0, 6.97, 6.97, 6.97, 6.97, 6.97, 7.33, 7.33, 7.61, 7.61, 7.61, 7.61, 7.95, 7.95, 8.24, 8.24, 8.53, 8.53, 8.53, 8.82, 8.82, 8.82, 9.08, 9.08, 9.37, 9.37, 9.59, 9.59, 9.86, 9.86, 9.3, 9.58, 9.58, 9.58, 9.86, 9.67, 9.97, 10.26, 9.86, 10.0, 10.27, 10.52, 10.52, 10.75, 10.93, 11.06, 10.7, 10.73, 10.28, 10.28, 10.28, 9.83, 9.83, 9.36, 8.92, 8.94, 8.49, 8.49, 8.05, 8.05, 8.05, 7.6, 8.05, 8.49, 8.9, 8.9, 10.28, 9.83, 9.39, 9.83, 9.83, 10.28, 10.73, 11.62, 12.07, 12.52, 13.41, 13.86, 14.3, 14.55, 15.18, 15.69, 18.57, 23.59, 28.16, -26.02, -19.67, 15.2, 9.17, -0.0, -0.0, -0.0, 3.82, 2.82, 2.71, 2.19, -0.0, -0.0, -0.0, 6.97, 6.97, 6.97, 6.97, 6.97, 7.33, 7.33, 7.33, 7.61, 7.61, 7.61, 7.95, 8.24, 8.24, 8.24, 8.53, 8.53, 8.82, 8.82, 8.82, 8.82, 8.82, 9.08, 9.37, 9.37, 9.37, 9.59, 9.86, 9.3, 9.3, 9.58, 9.58, 9.58, 9.67, 9.67, 9.97, 9.86, 9.86, 10.13, 10.27, 10.52, 10.52, 10.75, 10.93, 11.06, 11.15, 10.7, 10.73, 10.28, 10.28, 9.83, 9.83, 9.39, 8.94, 8.94, 8.49, 8.49, 8.05, 8.05, 8.05, 8.05, 7.6, 8.02, 8.46, 8.33, 8.89, 8.94, 9.39, 9.39, 9.83, 9.83, 10.24, 11.13, 12.02, 12.47, 12.96, 13.41, 13.41, 14.07, 14.23, 15.09, 15.06, 17.99, 25.03, -27.18, -21.01, -0.0, 4.6, 3.68, -0.0, -0.0, -0.0, 2.6, 2.49, -0.0, -0.0, -0.0, -0.0, 6.97, 6.97, 6.97, 6.97, 6.97, 7.33, 7.33, 7.33, 7.33, 7.61, 7.61, 8.24, 8.24, 8.24, 8.24, 8.24, 8.53, 8.82, 8.82, 8.82, 8.82, 8.82, 9.37, 9.37, 9.37, 9.37, 9.37, 9.66, 9.3, 9.3, 9.58, 9.58, 9.86, 9.3, 9.58, 9.58, 9.86, 9.86, 10.13, 10.38, 10.6, 10.52, 10.75, 10.93, 11.06, 11.06, 10.7, 10.7, 10.28, 10.28, 10.28, 9.83, 9.39, 8.94, 8.94, 8.49, 8.49, 8.05, 8.05, 8.05, 8.05, 7.58, 7.57, 7.92, 7.92, 8.89, 8.89, 9.39, 9.39, 9.83, 9.79, 9.68, 9.68, 11.0, 12.02, 12.47, 12.96, 12.96, 13.8, 14.51, 14.13, 13.7, 14.3, 18.21, -27.27, -17.81, -6.4, -0.0, 2.6, 2.71, -0.0, -0.0, 2.19, 2.1, -0.0, -0.0, -0.0, -0.0, 6.97, 6.71, 7.26, 7.26, 7.26, 7.61, 7.61, 7.33, 7.61, 7.61, 7.61, 8.24, 8.24, 8.24, 8.24, 8.24, 8.24, 8.82, 8.82, 8.82, 8.82, 8.82, 9.02, 9.02, 9.02, 9.37, 9.66, 9.3, 9.3, 9.58, 9.21, 9.21, 9.48, 9.3, 9.58, 9.58, 9.86, 10.13, 10.13, 10.38, 10.38, 10.52, 10.75, 10.93, 10.93, 11.06, 10.62, 10.7, 10.7, 10.26, 10.28, 9.83, 9.83, 8.94, 8.94, 8.49, 8.49, 8.05, 8.05, 8.02, 8.02, 7.58, 7.58, 7.5, 7.33, 7.01, 9.33, 9.33, 9.34, 9.83, 10.28, 10.23, 10.08, 9.42, 10.78, 11.44, 12.47, 12.96, 13.34, 13.79, 14.03, 14.03, 13.96, 15.77, -25.32, -17.11, -11.38, -3.82, -0.0, 2.6, 2.19, 2.19, 2.28, -0.0, -0.0, -1.39, -1.39, -1.39, 6.71, 6.71, 6.98, 7.26, 7.61, 7.61, 7.61, 7.61, 7.61, 7.61, 7.61, 7.93, 7.93, 8.24, 8.24, 7.93, 8.22, 8.5, 8.82, 8.82, 8.82, 9.12, 9.02, 9.02, 9.02, 9.3, 9.3, 9.3, 9.3, 9.21, 9.21, 9.48, 9.48, 9.58, 9.58, 9.86, 9.86, 10.13, 10.13, 10.38, 10.38, 10.52, 10.52, 10.75, 10.93, 10.96, 10.63, 10.63, 10.7, 10.26, 10.26, 9.83, 9.83, 8.94, 8.94, 8.49, 8.49, 8.49, 8.03, 8.03, 7.58, 7.58, 7.51, 7.5, 7.33, 7.28, 9.16, 9.16, 9.79, 9.39, 9.83, 10.28, 10.23, 10.04, 9.55, 10.7, 11.84, 12.52, 12.96, 12.96, 13.34, 13.79, 14.68, -22.69, -26.29, -17.59, -13.76, -9.17, -3.68, -0.0, -0.0, -0.0, -0.0, -0.0, -1.76, -2.82, -2.82, -2.82, 6.98, 6.98, 6.98, 7.26, 7.61, 7.61, 7.61, 7.61, 7.61, 7.61, 7.61, 7.93, 7.93, 7.93, 7.93, 8.22, 8.22, 8.5, 8.5, 8.5, 8.5, 8.78, 8.78, 9.02, 9.3, 9.3, 9.3, 9.3, 9.21, 9.21, 9.21, 9.48, 9.48, 9.58, 9.58, 9.86, 9.86, 10.13, 10.13, 10.38, 10.38, 10.52, 10.52, 10.75, 10.93, 10.96, 10.96, 10.63, 10.63, 10.26, 10.26, 9.81, 9.39, 8.94, 8.94, 8.47, 8.47, 8.47, 8.03, 8.03, 7.58, 7.51, 7.51, 7.51, 7.37, 7.14, 7.28, 7.45, 10.23, 10.28, 10.28, 10.28, 10.28, 10.28, 10.28, 10.47, 11.57, 12.07, 12.52, 12.52, 12.96, 13.86, 17.78, -26.37, -26.55, -17.43, -12.65, -10.79, -6.7, -2.82, -0.0, -0.0, -2.71, -2.19, -3.39, -4.05, -4.05, -4.05, 6.71, 6.71, 6.98, 6.98, 7.61, 7.61, 7.61, 7.61, 7.61, 7.61, 7.61, 7.93, 7.93, 7.93, 8.22, 8.22, 8.22, 8.5, 8.5, 8.5, 8.5, 8.78, 8.78, 8.78, 9.3, 9.3, 8.94, 9.21, 9.21, 9.21, 9.48, 9.48, 9.74, 9.74, 9.86, 9.86, 9.86, 10.13, 10.13, 10.46, 10.38, 10.6, 10.52, 10.75, 10.8, 10.96, 10.96, 10.52, 10.63, 10.63, 10.19, 10.26, 9.36, 9.36, 8.92, 8.47, 8.47, 8.47, 8.03, 7.97, 7.97, 7.52, 7.51, 7.4, 7.81, 7.63, 7.47, 7.71, 10.08, 10.68, 10.68, 10.73, 10.73, 10.28, 9.79, 9.79, 10.73, 11.62, 12.52, 12.52, 12.52, 13.41, 18.41, -24.14, -27.27, -16.96, -12.39, -7.59, -7.59, -6.71, -5.0, -5.2, -5.2, -5.75, -5.0, -4.88, -4.88, -4.88, 6.71, 6.71, 6.98, 6.98, 7.61, 7.61, 7.61, 7.61, 7.61, 7.61, 7.61, 7.93, 7.93, 7.93, 8.22, 8.22, 8.22, 8.22, 8.5, 8.78, 8.78, 8.78, 8.78, 9.08, 8.73, 8.94, 9.21, 9.21, 9.21, 9.48, 9.48, 9.48, 9.74, 9.74, 9.86, 9.86, 10.13, 10.13, 10.13, 10.46, 10.38, 10.6, 10.18, 10.18, 10.37, 10.37, 10.52, 10.52, 10.52, 10.63, 10.19, 10.19, 9.36, 9.36, 8.92, 8.92, 8.47, 8.47, 7.97, 7.97, 7.97, 7.97, 7.87, 7.84, 7.84, 7.63, 7.98, 7.6, 7.98, 10.56, 10.68, 10.68, 10.73, 10.28, 10.28, 10.28, 10.28, 11.18, 11.62, 12.07, 12.52, 13.75, 16.44, 18.79, -28.22, -23.64, -14.39, -9.97, -9.58, -8.94, -8.22, -8.22, -7.26, -6.45, -5.54, -5.1, -5.1, -5.1, 6.33, 6.33, 6.71, 6.98, 7.61, 7.61, 7.61, 7.61, 7.61, 7.61, 7.61, 7.93, 7.93, 8.22, 8.22, 8.22, 8.22, 8.22, 8.78, 8.78, 8.78, 8.78, 8.78, 8.73, 8.73, 8.73, 9.21, 9.21, 9.1, 9.1, 9.48, 9.74, 9.74, 9.35, 9.47, 9.47, 10.13, 10.13, 10.13, 10.46, 10.38, 9.96, 10.18, 10.18, 10.37, 10.37, 10.37, 10.52, 10.52, 10.52, 10.19, 9.75, 9.31, 9.37, 8.92, 8.92, 8.41, 8.41, 8.41, 7.97, 7.97, 7.87, 7.87, 7.87, 7.69, 8.06, 8.06, 7.73, 7.28, 9.55, 9.92, 10.56, 10.12, 9.79, 9.83, 9.79, 9.64, 10.23, 10.47, 11.55, 12.86, 13.44, 14.65, 18.24, -8.2, -26.65, -18.48, -13.59, -10.0, -10.0, -9.67, -8.22, -7.73, -7.44, -6.5, -5.92, -5.92, -5.92, 6.33, 6.33, 6.71, 6.98, 7.26, 7.61, 7.61, 7.61, 7.61, 7.61, 7.61, 7.93, 8.22, 8.22, 8.22, 8.22, 8.22, 8.22, 8.52, 8.78, 8.45, 8.45, 8.73, 8.73, 8.73, 9.01, 9.01, 8.65, 9.1, 9.1, 9.1, 9.35, 9.35, 9.2, 9.47, 9.47, 9.72, 10.13, 10.24, 10.24, 10.24, 9.96, 9.96, 10.18, 10.37, 10.37, 10.37, 10.52, 10.52, 10.52, 10.19, 9.75, 9.75, 9.31, 8.86, 8.86, 8.41, 8.41, 8.41, 8.41, 7.97, 7.87, 7.87, 8.3, 8.12, 8.12, 8.25, 8.14, 7.85, 8.99, 9.55, 9.92, 9.64, 9.34, 9.34, 9.34, 9.34, 9.34, 10.04, 11.62, 12.44, 13.09, 14.4, 16.91, 16.75, -26.29, -18.91, -15.04, -12.04, -10.68, -10.09, -8.82, -8.53, -8.53, -7.56, -6.76, -6.76, -6.76, 6.33, 6.33, 6.33, 6.98, 6.98, 7.61, 7.61, 7.61, 7.61, 7.61, 7.61, 7.91, 8.22, 8.22, 8.22, 8.22, 8.22, 8.22, 8.19, 8.45, 8.45, 8.45, 8.73, 8.73, 9.01, 9.01, 8.65, 8.65, 8.93, 8.93, 8.93, 9.2, 9.2, 9.2, 9.47, 9.47, 9.72, 9.83, 9.83, 9.83, 9.83, 9.96, 10.18, 10.18, 10.37, 10.37, 10.37, 10.37, 10.52, 10.52, 10.08, 9.75, 9.75, 9.31, 8.86, 8.86, 8.42, 8.42, 8.41, 8.41, 8.3, 8.3, 8.3, 8.3, 8.17, 8.12, 8.55, 8.25, 7.85, 8.0, 8.76, 11.0, 10.24, 9.34, 9.39, 9.39, 9.39, 9.83, 10.28, 11.62, 12.44, 13.33, 14.75, 16.54, 21.63, -27.18, -19.67, -16.09, -14.22, -12.72, -11.44, -10.04, -10.01, -9.17, -7.85, -7.24, -7.24, -7.24, 6.33, 6.33, 6.33, 6.61, 6.98, 6.98, 7.32, 7.32, 7.32, 7.32, 7.6, 7.91, 8.22, 8.22, 8.22, 8.22, 7.9, 7.9, 8.19, 8.19, 8.45, 8.45, 8.73, 8.73, 9.01, 9.01, 8.65, 8.65, 8.93, 8.93, 8.93, 9.2, 9.2, 9.2, 9.47, 9.47, 9.47, 9.83, 9.83, 9.83, 10.05, 10.05, 10.18, 10.18, 10.18, 10.37, 10.37, 10.37, 10.52, 10.52, 10.08, 9.64, 9.75, 9.31, 9.31, 8.86, 8.42, 8.42, 8.33, 8.3, 8.3, 8.3, 8.3, 8.3, 8.17, 8.12, 8.55, 8.25, 8.25, 8.0, 8.52, 10.78, 10.24, 10.73, 9.39, 9.83, 9.83, 9.83, 10.28, 10.73, 12.07, 12.96, 14.3, 15.65, 21.01, -27.72, -21.74, -15.97, -14.3, -13.59, -11.76, -11.2, -10.35, -9.88, -8.85, -8.53, -8.53, -8.53, 6.33, 6.33, 6.33, 6.61, 6.98, 6.98, 6.98, 7.32, 7.32, 7.32, 7.6, 7.6, 7.6, 7.9, 7.9, 7.9, 7.9, 8.19, 8.19, 8.19, 8.19, 8.73, 8.73, 8.73, 9.01, 9.01, 8.65, 8.65, 8.93, 8.93, 8.93, 9.2, 9.2, 9.2, 9.47, 9.47, 9.47, 9.6, 9.83, 9.83, 10.05, 10.24, 10.18, 10.18, 10.18, 10.37, 10.37, 10.37, 10.37, 9.93, 10.08, 9.64, 9.64, 9.21, 9.21, 8.77, 8.77, 8.33, 8.33, 8.33, 8.3, 8.3, 8.3, 8.3, 8.17, 8.17, 8.55, 8.34, 8.34, 8.0, 8.4, 8.76, 9.18, 11.62, 9.39, 9.83, 9.83, 9.83, 10.23, 10.66, 11.35, 12.88, 13.77, 14.75, 18.78, 25.03, -22.41, -18.21, -15.65, -14.47, -13.27, -11.99, -11.12, -10.25, -9.36, -8.85, -8.85, -8.85, 6.33, 6.33, 6.33, 6.61, 6.98, 6.98, 6.98, 7.32, 7.32, 7.32, 7.6, 7.6, 7.6, 7.9, 7.9, 7.9, 7.9, 8.19, 8.19, 8.19, 8.19, 8.73, 8.73, 8.73, 9.01, 9.01, 8.65, 8.65, 8.93, 8.93, 8.93, 9.2, 9.2, 9.2, 9.47, 9.47, 9.47, 9.6, 9.83, 9.83, 10.05, 10.24, 10.18, 10.18, 10.18, 10.37, 10.37, 10.37, 10.37, 9.93, 10.08, 9.64, 9.64, 9.21, 9.21, 8.77, 8.77, 8.33, 8.33, 8.33, 8.3, 8.3, 8.3, 8.3, 8.17, 8.17, 8.55, 8.34, 8.34, 8.0, 8.4, 8.76, 9.18, 11.62, 9.39, 9.83, 9.83, 9.83, 10.23, 10.66, 11.35, 12.22, 13.33, 14.3, 15.97, 19.96, 23.69, -21.01, -19.22, -16.01, -14.66, -13.28, -12.39, -11.5, -9.88, -9.02, -9.02, -9.02]}, {"header": {"dx": 0.06612293990616946, "dy": 0.0552356325346848, "nx": 98, "ny": 59, "la1": 35.046912555036876, "la2": 31.78801023549047, "lo1": -121.43107172385933, "lo2": -114.95102361305473, "refTime": "2026041523", "parameterCategory": 1, "parameterNumber": 3}, "data": [-12.45, -12.45, -12.16, -11.58, -11.33, -10.72, -10.13, -9.5, -9.16, -8.51, -7.85, -6.8, -6.57, -4.65, -2.93, -1.91, -1.05, 0.0, 0.0, -1.77, -4.81, -11.6, -11.46, -11.18, -11.18, -11.62, -11.45, -11.87, -11.45, -11.45, -11.87, -12.79, -12.52, -11.18, -9.55, -8.43, -7.81, -7.21, -6.64, -6.58, -5.21, -5.92, -5.77, -5.4, -4.81, -5.48, -4.8, -3.57, -2.81, -0.99, -1.02, 0.0, 0.0, 0.0, 0.0, 0.98, 1.94, 1.94, 2.8, 2.72, 2.72, 3.8, 3.8, 3.69, 3.57, 3.69, 3.93, 3.93, 4.18, 4.73, 5.5, 7.0, 7.0, 5.81, 4.95, 6.16, 4.66, 2.81, 6.6, 14.75, 14.3, 11.99, 10.37, 10.01, 9.66, 9.67, 8.53, 7.15, 7.15, 9.7, 11.72, 12.56, 12.98, 13.19, 13.19, 12.13, 10.37, 10.37, -12.45, -12.45, -12.45, -11.58, -11.33, -10.72, -10.12, -9.5, -9.8, -9.17, -7.87, -8.45, -6.79, -5.25, -4.1, -2.62, -1.92, -1.5, -3.32, -3.34, -3.68, -10.37, -12.71, -12.96, -10.73, -11.18, -11.46, -11.45, -11.45, -11.87, -13.57, -13.67, -12.52, -9.83, -7.63, -8.0, -6.99, -7.76, -7.64, -7.81, -8.15, -8.59, -7.54, -6.7, -6.2, -5.64, -4.05, -3.12, -1.06, 0.0, 0.0, 0.0, 0.0, 0.95, 1.78, 1.94, 2.88, 2.8, 2.8, 3.58, 3.8, 3.8, 3.69, 3.57, 2.72, 2.72, 3.0, 3.0, 3.42, 5.09, 5.65, 5.5, 5.5, 4.0, 3.3, 2.09, 2.43, 2.81, 6.6, 14.75, 14.3, 11.99, 10.37, 10.01, 9.66, 9.67, 8.53, 7.15, 7.15, 9.7, 11.72, 12.56, 12.98, 13.19, 13.19, 12.13, 10.37, 10.37, -12.45, -12.45, -12.45, -11.87, -11.58, -10.99, -10.12, -9.8, -9.5, -8.87, -8.54, -7.26, -7.19, -6.08, -4.47, -3.97, -3.06, -2.82, -3.47, -4.55, -4.32, -6.44, -11.2, -13.41, -13.86, -10.73, -10.62, -10.32, -10.75, -11.18, -14.6, -15.05, -14.3, -11.18, -8.17, -8.3, -7.37, -8.0, -8.6, -9.67, -9.02, -8.53, -7.93, -7.78, -7.5, -5.99, -3.81, -2.04, -1.13, 0.0, 0.0, 1.08, 1.08, 2.01, 1.83, 2.8, 2.8, 3.69, 3.58, 3.58, 3.8, 3.69, 2.72, 2.72, 2.9, 3.0, 2.09, 3.52, 3.52, 5.09, 5.5, 4.23, 4.12, 2.72, 1.63, 0.0, 0.0, 3.69, 14.3, 14.31, 14.3, 13.15, 12.04, 10.8, 10.09, 9.46, 8.59, 8.59, 8.59, 10.87, 13.39, 13.81, 13.81, 13.19, 12.13, 10.18, 9.17, 9.5, -12.73, -12.45, -12.09, -11.87, -11.58, -10.99, -10.72, -9.8, -9.5, -8.87, -8.54, -8.22, -7.51, -5.86, -5.57, -4.47, -4.47, -4.99, -4.47, -4.99, -3.82, -4.4, -7.9, -11.06, -12.07, -12.96, -10.18, -9.74, -9.74, -11.09, -11.98, -13.86, -15.65, -15.65, -12.27, -9.96, -9.2, -9.86, -9.36, -10.4, -10.41, -9.96, -8.72, -7.93, -6.31, -4.99, -4.38, -2.35, -1.13, 0.0, 0.0, 1.08, 1.05, 1.95, 2.89, 2.89, 2.72, 3.58, 3.58, 2.81, 2.89, 2.81, 2.02, 1.96, 1.96, 2.24, 2.38, 4.6, 6.26, 6.88, 5.65, 4.12, 2.8, 1.34, 0.0, -2.72, 0.0, 9.12, 14.42, 13.59, 13.23, 13.41, 12.79, 11.18, 10.27, 10.09, 9.82, 10.09, 9.7, 12.39, 14.23, 13.81, 12.39, 11.64, 9.84, 8.73, 8.44, 10.19, -12.73, -12.37, -12.09, -11.87, -11.87, -10.99, -10.72, -10.12, -9.5, -8.87, -7.95, -8.22, -8.12, -6.67, -5.35, -5.57, -5.2, -5.2, -5.2, -5.78, -5.8, -6.21, -7.26, -10.79, -10.73, -12.07, -12.52, -12.07, -11.18, -10.28, -10.73, -11.18, -11.55, -12.42, -14.11, -13.57, -14.42, -12.03, -10.85, -11.09, -11.41, -9.64, -8.97, -7.95, -6.64, -5.33, -3.47, -2.35, -1.13, 0.0, 0.0, 2.02, 2.02, 3.09, 3.8, 3.8, 2.89, 2.89, 2.89, 1.89, 2.02, 1.96, 2.11, 2.24, 2.24, 4.01, 5.81, 6.84, 8.78, 8.32, 6.72, 4.7, 4.82, 1.93, 0.0, -2.54, 7.69, 11.17, 10.82, 13.41, 12.79, 12.96, 12.07, 11.06, 10.75, 10.88, 10.8, 10.4, 11.99, 13.59, 13.39, 12.14, 10.87, 10.55, 9.17, 8.73, 8.44, 10.19, -12.93, -12.37, -12.09, -11.87, -11.87, -10.99, -10.72, -10.12, -9.5, -8.87, -8.24, -8.19, -8.53, -6.67, -5.35, -5.35, -5.35, -5.57, -5.63, -6.84, -6.67, -7.54, -9.48, -12.72, -12.52, -12.07, -12.07, -12.07, -12.96, -12.07, -9.77, -10.22, -9.75, -9.2, -10.8, -12.98, -12.56, -10.61, -10.08, -10.68, -11.55, -11.64, -9.13, -7.36, -6.4, -3.88, -2.64, 0.0, 0.0, 2.35, 3.36, 4.08, 4.08, 4.21, 4.05, 3.09, 3.09, 2.09, 1.95, 1.02, 1.06, 1.03, 2.24, 2.5, 4.23, 7.6, 10.0, 9.49, 8.13, 8.32, 7.49, 6.87, 5.27, 4.07, 2.59, 7.4, 11.5, 10.12, 9.17, 12.71, 11.91, 11.18, 11.06, 11.62, 11.62, 11.53, 11.3, 11.99, 12.81, 13.39, 12.14, 12.33, 11.64, 9.96, 7.54, 7.79, 9.17, 10.87, -12.93, -12.37, -12.37, -11.87, -11.87, -11.28, -10.99, -10.4, -9.8, -9.19, -8.24, -7.9, -7.78, -6.0, -5.86, -5.14, -5.0, -5.2, -5.86, -6.2, -6.2, -6.45, -5.35, -7.73, -12.14, -11.62, -11.62, -12.07, -12.52, -10.73, -11.18, -9.6, -8.99, -7.06, -8.41, -11.33, -12.27, -13.41, -11.28, -10.28, -12.35, -11.6, -6.4, -2.98, 0.0, 1.89, 4.62, 4.37, 4.74, 4.87, 6.4, 5.33, 5.14, 4.34, 3.0, 1.96, 2.02, 1.02, 1.02, 0.0, 1.03, 1.11, 1.26, 4.62, 10.15, 11.7, 10.61, 9.23, 6.47, 5.65, 7.03, 5.18, 4.47, 3.59, 7.6, 13.26, 13.03, 9.48, 10.73, 13.15, 11.51, 10.68, 11.09, 11.45, 11.91, 12.52, 13.15, 13.57, 13.75, 12.89, 12.89, 12.33, 11.16, 9.48, 8.59, 8.3, 9.62, 10.48, -12.56, -12.37, -12.37, -12.16, -11.52, -11.28, -10.99, -10.72, -9.8, -9.48, -8.22, -8.49, -8.22, -7.26, -5.86, -5.41, -5.51, -5.72, -5.2, -5.86, -5.0, -4.68, -4.06, -1.84, 0.0, 2.02, 5.7, 5.95, 0.0, -10.0, -11.06, -11.51, -10.27, -7.59, -6.71, -6.5, 7.27, 10.0, -0.0, -10.4, 0.0, 8.53, 6.94, 8.31, 9.22, 10.05, 8.68, 8.28, 7.06, 6.4, 5.18, 5.16, 4.08, 3.12, 2.11, 0.99, 0.0, 0.0, 0.0, 0.0, 0.0, 0.0, 4.81, 11.06, 13.18, 12.63, 9.99, 7.49, 4.66, 3.79, 2.94, 3.01, 1.46, 3.39, 6.8, 9.22, 8.58, 9.48, 12.71, 14.3, 13.86, 10.41, 8.53, 8.85, 10.01, 13.01, 13.41, 13.41, 12.71, 12.71, 12.71, 12.04, 10.47, 9.8, 9.48, 9.62, 10.48, 10.09, -12.56, -12.37, -12.37, -11.8, -11.52, -11.28, -10.99, -10.72, -10.12, -9.48, -8.5, -9.01, -10.37, -8.97, -7.78, -7.26, -7.1, -6.45, -5.86, -5.35, -5.0, -5.2, -3.97, -1.98, 2.16, 5.6, 6.64, 5.9, 3.82, -3.98, -8.23, -9.6, 0.0, 0.0, 1.58, 2.82, 7.59, 10.73, 11.28, 9.3, 11.2, 10.73, 9.77, 8.38, 8.94, 7.34, 7.98, 9.87, 8.64, 7.28, 5.99, 4.43, 3.25, 2.11, 1.06, 0.0, 0.0, -1.83, -1.9, -1.91, -1.13, 1.89, 10.75, 13.99, 13.58, 12.01, 9.36, 6.19, 3.32, 1.05, 0.0, 0.0, 0.0, 0.0, 2.43, 3.47, 7.69, 12.71, 13.41, 15.2, 14.3, 11.5, 7.36, 2.28, 3.04, 3.96, 11.6, 11.6, 11.87, 12.96, 12.96, 12.58, 11.12, 11.16, 11.16, 10.41, 10.68, 11.09, -12.65, -12.37, -12.37, -11.8, -11.52, -11.28, -11.28, -10.72, -10.12, -9.48, -9.42, -9.71, -8.45, -8.49, -8.97, -8.64, -8.64, -8.22, -7.56, -6.98, -6.87, -6.87, -7.26, 0.0, 9.3, 10.0, 6.95, 6.95, 2.1, 0.0, 0.0, 11.18, 9.83, 9.6, 9.3, 6.97, 6.44, 8.22, 10.4, 9.62, 9.08, 8.24, 7.24, 6.16, 5.2, 6.3, 6.0, 6.85, 8.4, 7.0, 5.67, 4.66, 3.47, 2.28, 1.15, 0.0, -1.06, -2.71, -3.39, -4.65, 0.0, 13.76, 16.32, 14.65, 12.57, 11.66, 9.01, 5.98, 1.72, 0.0, -2.09, -3.52, -4.23, -3.9, -3.07, -4.38, 12.72, 11.62, 12.07, 14.3, 15.2, 16.54, 9.17, -0.0, -0.0, -0.0, -0.0, -0.0, 6.0, 9.17, 12.96, 12.52, 12.27, 11.6, 10.79, 11.2, 11.2, 11.2, -12.65, -12.65, -12.37, -11.8, -11.52, -11.28, -11.28, -10.4, -10.4, -9.77, -9.46, -9.76, -9.76, -8.53, -8.72, -7.36, -8.02, -8.85, -7.19, -6.51, -7.36, -7.82, -3.36, 11.87, 12.96, 10.18, 9.75, 8.18, 5.46, 4.4, 7.27, 8.91, 9.33, 8.43, 6.14, 6.97, 8.22, 9.67, 9.3, 8.85, 7.96, 6.94, 5.64, 4.75, 5.2, 4.72, 5.86, 6.94, 6.3, 6.0, 6.6, 7.2, 7.82, 7.82, 8.53, 7.4, 5.23, -3.01, -5.72, -8.05, 16.19, 17.64, 15.81, 14.39, 13.58, 13.29, 11.53, 7.04, 0.0, -2.81, -6.2, -8.18, -9.35, -10.05, -10.75, 0.0, 11.62, 11.18, 14.3, 15.05, 14.99, 15.65, 16.09, 14.13, 5.09, -0.0, -3.69, -0.0, -0.0, 7.44, 10.41, 12.14, 12.52, 11.62, 10.8, 11.6, 12.3, 12.3, -12.27, -12.27, -12.0, -11.8, -11.52, -11.28, -11.28, -10.4, -10.4, -10.09, -9.48, -9.78, -9.78, -8.56, -6.7, -5.44, -4.08, -3.11, -2.72, -1.83, -0.89, 0.0, 2.35, 5.81, 11.16, 10.41, 11.45, 8.24, 8.93, 5.95, 6.71, 7.59, 7.59, 7.27, 5.7, 6.24, 6.44, 8.22, 7.65, 6.7, 5.6, 5.4, 4.32, 3.19, 3.39, 5.98, 7.54, 7.82, 8.1, 7.13, 9.31, 10.76, 14.26, 17.58, 17.57, 17.57, 17.58, 0.0, -11.71, 9.8, 17.88, 18.17, 16.76, 15.02, 14.61, 15.99, 16.48, 15.34, 2.84, -14.57, -13.56, -12.39, -13.19, -13.03, -11.6, 10.73, 11.62, 14.75, 15.18, 14.38, 15.27, 16.09, 16.99, 17.88, 18.78, 13.59, -0.0, 4.81, 8.18, 6.2, 5.6, 9.67, 11.62, 11.28, 11.62, 12.04, 12.3, 12.3, -12.27, -12.27, -11.8, -11.8, -11.52, -11.28, -10.94, -10.4, -10.4, -9.8, -9.48, -9.78, -9.78, -9.48, -7.6, -6.25, -4.1, -2.43, -1.27, -0.66, 0.0, 1.4, 2.37, 1.95, 3.1, 7.13, 9.48, 10.37, 8.53, 5.46, 4.15, 6.2, 6.87, 5.1, 5.1, 5.98, 6.17, 7.27, 5.92, 5.43, 4.32, 3.34, 3.21, 3.45, 5.29, 8.58, 9.3, 9.66, 9.17, 9.48, 8.85, 10.91, 12.79, 14.42, 16.33, 17.62, 17.47, 16.12, -7.2, 10.8, 16.09, 16.22, 16.76, 15.38, 17.11, 17.71, 19.41, 22.73, 24.59, -17.7, -21.2, -21.01, -14.3, -11.51, -9.83, 11.62, 14.66, 15.61, 15.07, 13.46, 13.39, 16.54, 15.61, 16.54, 16.66, 18.78, 13.91, 12.64, 14.39, 10.12, 7.69, 6.45, 10.6, 11.62, 12.27, 12.04, 12.3, 12.72, -12.27, -12.09, -11.8, -11.8, -11.8, -11.28, -10.94, -10.4, -10.12, -9.8, -9.48, -9.48, -9.48, -9.48, -8.83, -6.92, -5.77, -4.07, -2.85, -1.79, -1.24, 0.0, 0.0, 0.82, 1.02, 2.81, 4.38, 4.87, 3.68, 2.06, 1.76, 3.98, 4.15, 5.46, 4.88, 5.72, 6.4, 6.69, 5.45, 3.39, 2.1, 2.02, 1.76, 5.29, 6.95, 8.82, 7.81, 8.94, 9.3, 10.01, 10.01, 9.66, 10.8, 11.84, 11.62, 10.19, 11.06, 6.08, 5.2, 13.86, 13.86, 15.34, 15.69, 16.12, 15.54, 15.06, 15.59, 17.33, 21.17, -0.0, -20.32, -21.49, -18.33, -10.28, 11.18, 14.68, 15.84, 15.59, 13.82, 12.9, 13.05, 13.76, 11.06, -0.0, 15.18, 16.54, 17.35, 16.39, 16.19, 16.22, 11.9, 9.3, 10.84, 12.52, 12.35, 12.3, 12.3, 12.46, -11.72, -11.72, -12.09, -11.8, -11.8, -11.28, -11.28, -10.4, -10.12, -9.8, -9.48, -9.48, -9.17, -9.15, -8.83, -7.59, -6.46, -5.08, -4.03, -3.5, -2.3, -1.25, -0.65, 0.0, 0.0, 2.28, 3.65, 3.65, 2.4, 1.33, 0.0, 0.0, 2.19, 3.82, 5.29, 6.42, 7.59, 6.4, 4.4, 2.13, 1.14, 1.52, 3.65, 6.95, 8.43, 9.13, 9.13, 8.23, 8.58, 8.94, 8.22, 8.94, 8.58, 7.51, 7.87, 6.44, 4.32, 2.72, 5.8, 12.33, 12.3, 11.92, 12.03, 11.9, 13.19, 13.59, 14.79, 14.13, 11.38, 9.0, -20.56, -21.29, -20.36, 12.52, 13.36, 15.69, 15.59, 14.88, 12.01, 11.06, 10.13, 8.74, 0.0, 0.0, 12.96, 15.2, 15.2, 16.09, 15.87, 16.54, 16.99, 13.23, 11.46, 12.52, 13.41, 12.46, 12.46, 12.46, -11.72, -11.72, -11.72, -11.44, -11.8, -11.28, -11.28, -10.4, -10.12, -9.8, -9.19, -9.48, -9.17, -9.13, -8.83, -8.15, -6.76, -5.8, -4.77, -4.07, -2.97, -2.4, -1.31, 0.0, 0.87, 2.09, 3.12, 2.11, 1.03, 0.0, 0.0, 0.0, 0.0, 1.76, 5.29, 5.82, 6.69, 5.45, 3.39, 1.69, 2.58, 5.21, 7.27, 8.43, 8.43, 8.72, 9.13, 8.82, 8.23, 7.27, 8.94, 9.3, 8.22, 7.59, 4.83, 3.65, 1.69, 1.91, 5.81, 11.06, 9.53, 8.93, 8.22, 7.54, 8.53, 9.17, 9.17, 9.49, 10.05, 7.3, -18.4, -18.66, -0.0, 18.78, 14.53, 16.39, 15.01, 14.03, 12.07, 10.17, 9.71, 7.22, 0.0, 6.6, 12.07, 11.06, 12.89, 12.86, 12.96, 13.86, 15.65, 12.86, 12.96, 13.41, 12.42, 11.71, 12.14, 12.14, -11.72, -11.72, -11.72, -11.44, -11.23, -10.94, -10.94, -10.4, -10.12, -9.8, -9.19, -9.48, -9.48, -9.13, -8.46, -8.05, -7.04, -6.04, -5.32, -4.24, -3.68, -2.51, -1.27, 0.0, 1.67, 2.64, 1.83, 0.92, 0.0, -0.95, -1.03, -1.17, -1.11, 0.0, 4.96, 6.01, 6.3, 6.44, 3.82, 3.65, 5.9, 7.44, 8.82, 7.44, 8.43, 8.43, 8.82, 8.03, 7.27, 7.27, 7.27, 6.7, 6.98, 6.7, 5.95, 4.6, 3.25, 4.23, 5.99, 9.17, 8.85, 7.15, 5.95, 4.8, 3.98, 4.6, 5.2, 5.2, 5.15, 3.42, -15.49, -18.33, 17.74, 20.08, 15.74, 14.53, 13.59, 12.29, 11.28, 10.41, 9.48, 8.65, 7.6, 11.87, 13.75, 11.18, 11.61, 12.58, 13.01, 13.44, 14.64, 13.41, 12.44, 12.96, 12.83, 11.98, 12.04, 12.04, -11.72, -11.72, -11.72, -11.23, -11.23, -10.94, -10.94, -10.4, -10.12, -9.8, -9.19, -9.5, -9.48, -9.13, -8.46, -7.78, -7.44, -6.72, -5.32, -4.28, -3.0, -2.51, -1.99, 0.0, 1.48, 0.79, 0.0, -0.95, -1.89, -3.92, -4.34, -4.58, -3.6, 0.0, 4.23, 6.42, 6.95, 5.7, 4.4, 5.9, 7.87, 7.87, 7.87, 8.23, 8.82, 8.03, 8.38, 6.42, 6.42, 5.29, 5.29, 6.42, 6.42, 6.42, 6.42, 5.7, 5.7, 5.95, 7.15, 7.15, 5.99, 5.77, 4.23, 3.39, 1.76, 1.39, 0.0, 0.0, 0.0, 0.0, 0.0, 10.12, 15.11, 16.38, 12.33, 10.19, 9.92, 10.08, 10.12, 11.27, 11.35, 12.64, 11.45, 11.99, 11.5, 12.14, 12.58, 12.58, 13.09, 13.57, 13.57, 12.86, 11.62, 12.07, 12.96, 12.83, 12.39, 12.39, -11.35, -11.16, -11.52, -11.23, -11.23, -10.94, -10.94, -10.69, -10.4, -9.8, -9.5, -9.5, -9.48, -9.13, -8.83, -8.95, -7.22, -7.19, -5.86, -4.17, -3.68, -3.88, -3.36, -2.63, -0.96, -1.53, -3.41, -5.15, -4.24, -6.88, -8.05, -7.54, -4.93, 0.0, 3.53, 4.8, 5.7, 2.1, 4.15, 4.8, 6.14, 6.42, 7.9, 8.94, 8.22, 6.7, 6.7, 4.6, 4.6, 4.6, 4.6, 6.42, 6.42, 6.42, 7.27, 7.27, 5.7, 7.15, 7.73, 5.77, 4.58, 3.19, 3.07, 1.09, 0.0, 0.0, 0.0, 0.0, 0.0, 0.0, 5.14, 9.86, 11.79, 11.5, 6.81, 4.95, 4.73, 5.23, 7.6, 10.46, 12.01, 12.33, 13.1, 11.2, 12.33, 12.56, 13.01, 12.3, 13.09, 12.85, 13.57, 12.72, 11.78, 11.55, 13.75, 14.16, 13.72, 13.72, -11.16, -11.16, -11.16, -11.23, -11.23, -11.23, -10.69, -10.69, -10.4, -9.8, -9.5, -9.5, -9.17, -9.13, -9.13, -8.17, -7.51, -7.24, -6.56, -5.93, -4.87, -5.9, -6.8, -6.57, -5.43, -4.43, -5.27, -6.9, -9.8, -12.96, -12.52, -10.01, -5.4, 0.0, 2.28, 2.6, 2.6, 0.0, 1.76, 2.82, 4.23, 5.32, 5.54, 5.54, 5.92, 5.98, 4.6, 3.25, 3.25, 3.11, 6.14, 8.03, 8.38, 8.73, 6.95, 6.95, 7.15, 7.13, 5.95, 4.08, 3.07, 1.52, 1.52, 0.0, 0.0, 0.0, -1.45, 0.0, 0.0, 1.21, 4.86, 6.91, 7.63, 4.11, 1.17, 0.0, 0.0, 0.0, 11.7, 12.9, 11.06, 11.7, 11.68, 11.64, 12.03, 11.99, 12.72, 11.85, 12.3, 11.99, 12.72, 12.45, 11.85, 11.85, 13.15, 14.75, 14.31, 14.31, -11.16, -11.16, -10.88, -10.88, -10.88, -11.23, -10.69, -10.69, -10.69, -10.12, -9.8, -9.5, -9.17, -9.13, -9.13, -8.53, -7.87, -7.51, -7.14, -7.38, -6.88, -7.15, -8.91, -9.27, -7.98, -6.4, -4.08, -2.54, 0.0, 0.0, -10.4, -8.22, 0.0, 0.0, 2.28, 2.19, 2.19, 0.0, 0.0, 1.58, 1.58, 3.07, 4.4, 4.75, 4.58, 6.21, 3.11, 3.25, 3.25, 5.29, 6.95, 8.82, 9.2, 8.73, 8.38, 7.81, 7.36, 7.42, 5.77, 3.07, 1.58, 0.0, 0.0, 0.0, 0.0, -1.52, 0.0, 0.0, 3.14, 3.98, 4.95, 4.72, 2.72, 0.0, -2.6, -4.23, 0.0, 10.73, 13.76, 11.68, 11.06, 11.88, 11.2, 10.91, 12.03, 11.64, 11.99, 12.25, 12.45, 11.56, 11.99, 12.45, 12.5, 11.16, 12.11, 13.99, 13.99, 13.99, -11.16, -11.16, -10.88, -10.88, -10.65, -10.65, -10.36, -10.69, -10.42, -10.12, -9.8, -9.8, -9.17, -9.17, -9.13, -8.81, -8.15, -8.05, -8.31, -8.51, -7.16, -6.05, -6.2, -8.66, -9.06, -7.1, -4.52, -2.54, -0.93, -1.2, -1.71, 0.0, 0.0, 2.28, 2.28, 1.84, 1.91, 0.0, 0.0, 0.0, 1.58, 3.07, 3.07, 4.75, 4.4, 4.8, 3.39, 3.11, 3.82, 7.27, 8.82, 9.2, 9.2, 8.73, 8.38, 8.73, 8.75, 8.85, 5.77, 2.95, 1.14, 0.0, -1.11, -2.42, -2.71, -1.58, 1.91, 6.7, 8.44, 8.18, 7.76, 8.17, 8.1, 0.0, -8.8, -11.87, 16.99, 18.78, 17.64, 14.79, 13.58, 12.56, 13.1, 12.37, 12.42, 11.99, 11.99, 13.07, 13.7, 11.21, 11.21, 11.5, 11.29, 10.77, 12.13, 13.57, 14.4, 14.4, -10.8, -10.8, -11.16, -10.65, -10.65, -10.65, -10.65, -10.69, -10.42, -10.12, -9.8, -9.8, -9.46, -9.17, -8.81, -8.81, -8.42, -8.42, -8.25, -8.43, -6.87, -4.86, -3.73, -4.99, -6.9, -7.44, -6.2, -4.13, -3.14, -1.77, -1.0, 0.0, 0.0, 1.64, 1.91, 1.91, 1.91, 0.0, 0.0, 0.0, 1.64, 3.19, 3.19, 4.58, 5.77, 5.0, 3.39, 3.49, 5.63, 8.82, 8.82, 9.2, 8.38, 8.73, 8.38, 8.38, 8.49, 9.17, 6.43, 3.81, 1.04, 0.0, -1.28, -1.44, 0.0, 3.53, 8.93, 9.09, 9.3, 8.85, 8.66, 8.0, 5.17, -3.36, -3.6, -0.0, 10.41, 14.75, 16.66, 16.54, 13.32, 13.02, 13.58, 13.58, 12.0, 12.03, 12.39, 13.07, 13.89, 13.29, 11.6, 10.59, 10.12, 10.12, 12.13, 13.57, 13.96, 13.96, -11.07, -11.07, -10.8, -10.94, -10.65, -10.65, -10.65, -10.42, -10.42, -10.42, -9.8, -9.8, -9.46, -9.46, -8.81, -8.81, -9.09, -8.69, -8.69, -7.93, -7.17, -5.74, -4.54, -3.53, -4.36, -5.16, -5.62, -5.46, -4.24, -3.14, -2.62, -1.98, 0.0, 0.0, 0.0, 1.58, 0.0, 0.0, 0.0, 0.0, 1.64, 3.19, 3.19, 4.58, 4.58, 4.4, 4.65, 5.75, 7.59, 9.58, 9.97, 9.58, 8.38, 8.38, 8.82, 8.03, 7.9, 7.85, 7.19, 6.45, 3.14, 2.58, 1.58, 3.19, 6.98, 10.24, 10.8, 10.87, 8.94, 7.27, 3.92, 0.0, 25.93, -0.0, -0.0, 7.44, 11.16, 11.6, 14.31, 14.99, 13.86, 13.57, 13.19, 12.42, 12.27, 12.81, 12.81, 13.19, 13.29, 13.39, 11.53, 10.02, 9.8, 9.8, 12.42, 13.57, 13.15, 13.15, -11.07, -11.07, -10.59, -10.59, -10.65, -10.65, -10.65, -10.09, -10.42, -10.42, -10.12, -9.8, -9.46, -9.46, -9.46, -9.09, -9.09, -8.42, -8.42, -7.69, -7.23, -6.45, -5.74, -4.7, -4.31, -3.87, -4.51, -4.51, -4.51, -3.46, -2.72, -1.97, -1.04, 0.0, 0.0, 0.0, 0.0, 0.0, 0.0, 0.0, 1.64, 3.19, 3.07, 3.92, 3.92, 3.77, 2.52, 3.08, 3.65, 4.4, 6.87, 8.85, 8.58, 9.2, 8.82, 8.03, 7.27, 6.3, 7.26, 7.82, 6.2, 4.2, 4.88, 6.24, 9.46, 11.03, 10.8, 10.04, 9.08, 4.08, 0.0, 0.0, 0.0, 0.0, -0.0, 5.65, 9.92, 11.06, 12.79, 11.5, 12.87, 13.86, 13.41, 12.72, 13.19, 12.27, 12.81, 13.19, 12.89, 12.35, 13.41, 11.03, 10.12, 10.43, 11.99, 12.98, 12.98, 12.98, -11.07, -11.07, -10.59, -10.59, -10.65, -10.65, -10.65, -10.09, -10.09, -10.42, -10.12, -9.8, -9.8, -9.46, -9.46, -8.81, -8.81, -8.42, -8.42, -8.42, -7.69, -7.23, -6.73, -6.0, -5.45, -4.7, -4.55, -4.1, -4.36, -3.56, -2.92, -1.97, -2.06, -1.09, 0.0, 0.0, 0.0, 0.0, 0.0, 0.0, 1.58, 3.19, 4.4, 3.92, 3.77, 3.39, 2.28, 1.02, 1.09, 1.22, 5.0, 8.59, 10.73, 10.35, 9.58, 8.38, 7.27, 5.9, 7.27, 7.26, 6.7, 5.99, 4.56, 6.4, 9.09, 10.55, 11.2, 10.41, 6.87, 4.39, 1.33, 0.0, 0.0, 0.0, 0.0, -0.0, 2.42, 4.91, 7.26, 7.26, 10.47, 11.88, 15.2, 13.67, 13.57, 13.99, 13.2, 12.0, 11.8, 12.0, 13.41, 12.36, 11.44, 11.88, 12.39, 13.15, 12.39, 12.39, -10.87, -10.87, -10.87, -10.59, -10.3, -10.65, -10.39, -10.39, -10.09, -10.42, -10.12, -10.12, -9.8, -9.46, -9.46, -8.81, -8.81, -8.42, -8.42, -8.42, -7.99, -7.23, -6.99, -6.51, -6.0, -5.27, -4.94, -4.31, -3.87, -3.34, -2.72, -2.62, -2.81, -1.98, -2.16, -1.16, -1.28, -1.23, 0.0, 0.0, 0.0, 3.19, 4.58, 4.8, 3.25, 2.19, 1.11, 1.02, 0.0, 0.0, 6.7, 9.09, 8.72, 9.2, 9.3, 8.24, 5.52, 6.17, 6.64, 6.58, 5.4, 4.15, 4.4, 6.98, 10.41, 10.16, 10.04, 7.78, 6.3, 4.1, 1.29, 0.0, 0.0, 0.0, 0.0, -19.28, -7.77, -0.0, 1.22, 3.87, 6.45, 8.1, 12.79, 12.96, 13.67, 13.99, 13.58, 12.73, 11.54, 11.8, 12.0, 12.36, 13.95, 13.46, 12.89, 12.42, 11.64, 11.64, -10.51, -10.51, -10.87, -10.59, -10.59, -10.06, -10.39, -10.39, -10.09, -9.8, -10.12, -10.12, -9.8, -9.46, -9.46, -8.81, -8.81, -8.15, -8.15, -8.15, -7.73, -7.73, -7.29, -6.8, -6.0, -5.45, -5.27, -4.94, -4.77, -4.17, -3.73, -3.11, -3.32, -2.71, -1.98, -2.08, -2.28, -1.23, -1.23, 0.0, 0.0, 1.64, 4.4, 3.25, 3.11, 3.39, 1.14, 0.0, 0.0, 3.82, 8.59, 8.93, 8.58, 8.37, 8.24, 8.22, 6.71, 7.59, 7.9, 6.58, 5.0, 3.21, 3.21, 7.24, 9.67, 10.19, 8.83, 6.08, 3.82, 1.29, 0.0, 0.0, -1.21, -1.25, -1.38, -4.27, -16.75, -0.0, -0.0, 2.23, 4.4, 5.2, 8.05, 11.2, 12.52, 13.59, 13.19, 12.02, 11.88, 11.8, 11.8, 11.06, 12.45, 13.59, 12.56, 12.73, 12.37, 12.37, -10.51, -10.51, -10.51, -10.59, -10.59, -10.06, -10.06, -10.39, -10.09, -10.09, -9.8, -10.12, -10.12, -9.46, -9.46, -8.81, -8.53, -8.53, -8.15, -8.15, -7.73, -7.48, -7.04, -6.8, -6.8, -6.07, -5.52, -5.52, -4.77, -4.17, -4.02, -3.6, -3.11, -3.32, -2.61, -2.82, -2.08, -2.19, -1.23, -1.33, 0.0, 1.58, 3.07, 5.4, 6.7, 4.99, 1.16, 0.0, 8.82, 8.55, 9.77, 8.93, 7.74, 7.81, 8.24, 6.87, 7.24, 8.22, 7.59, 7.15, 5.0, 3.53, 4.9, 8.15, 9.53, 9.17, 8.51, 6.08, 2.28, 0.0, -1.38, -2.64, -2.48, -2.4, -2.56, -3.28, 0.0, 10.66, 18.21, 4.12, 2.93, 3.25, 4.65, 6.7, 12.3, 13.41, 12.45, 11.52, 11.68, 10.75, 9.6, 8.83, 10.18, 11.38, 12.01, 13.05, 13.46, 13.46, -10.51, -10.51, -10.51, -10.51, -10.59, -10.35, -10.06, -10.06, -10.09, -9.8, -9.8, -9.8, -10.12, -9.46, -9.46, -9.17, -8.53, -8.53, -7.87, -7.87, -7.48, -7.48, -7.04, -7.04, -6.57, -6.07, -6.07, -5.52, -4.77, -4.77, -4.17, -4.24, -3.6, -3.68, -3.19, -2.61, -3.06, -3.21, -2.42, -1.18, 0.0, 0.0, 1.84, 4.8, 7.15, 5.77, 3.53, 8.03, 8.72, 8.82, 7.9, 6.77, 7.74, 7.27, 6.87, 5.95, 5.46, 6.2, 6.45, 6.2, 3.77, 3.53, 5.86, 7.65, 7.95, 7.51, 8.05, 7.1, 3.92, -1.22, -3.39, -2.91, -1.6, -1.54, -2.96, -1.6, 0.0, 9.24, 15.54, 19.84, 5.77, 1.77, 1.91, 2.45, 8.22, 14.3, 13.15, 10.12, 9.44, 6.6, 6.6, 6.16, 6.16, 9.09, 10.3, 12.33, 15.14, 15.14, -10.51, -10.51, -10.51, -10.51, -10.23, -10.35, -10.06, -10.06, -9.77, -9.48, -9.8, -9.8, -9.8, -9.48, -9.17, -8.87, -8.24, -8.24, -7.87, -7.87, -7.48, -7.48, -7.04, -7.34, -6.87, -6.57, -6.07, -5.33, -4.77, -4.77, -4.77, -4.77, -4.24, -4.24, -3.68, -3.29, -3.53, -2.94, -3.08, -2.33, -1.33, 0.0, 1.52, 3.39, 3.39, 3.82, 4.75, 7.06, 6.83, 7.42, 6.59, 5.7, 5.45, 6.44, 6.24, 5.32, 5.7, 5.2, 4.8, 5.0, 4.4, 4.08, 5.86, 5.64, 5.86, 5.2, 5.2, 5.8, 6.21, 0.0, 0.0, 1.58, 4.95, 3.75, 0.0, 0.0, 0.0, 5.81, 13.46, 19.2, 18.78, -0.0, -0.0, -0.0, -0.0, -0.0, 0.0, 3.47, 4.52, 3.58, 1.83, 2.09, 2.15, 4.3, 7.76, 11.38, 14.75, 14.75, -10.51, -10.51, -10.51, -10.51, -10.01, -10.01, -10.01, -10.06, -9.77, -9.48, -9.48, -9.48, -9.8, -9.17, -8.87, -8.58, -8.24, -8.24, -7.6, -7.6, -7.22, -7.78, -7.34, -7.34, -6.87, -6.87, -6.35, -5.92, -5.43, -5.2, -5.6, -5.6, -5.02, -4.84, -4.48, -3.91, -4.01, -3.53, -2.82, -3.08, -2.23, 0.0, 0.0, 1.52, 1.52, 1.58, 3.53, 4.8, 4.8, 5.0, 5.21, 4.99, 5.21, 4.8, 4.6, 5.1, 5.54, 5.0, 3.39, 2.82, 3.32, 4.08, 4.72, 4.15, 3.68, 2.42, 1.28, 1.91, 2.06, 3.82, 3.61, 5.45, 7.69, 6.59, 4.42, 0.0, 1.48, 5.54, 9.8, 15.16, 18.14, 9.92, -0.0, -2.35, -6.6, -10.75, -15.65, -4.66, 0.0, 0.0, 0.0, 0.0, 0.0, 2.15, 6.8, 12.22, 14.79, 14.79, -10.51, -10.51, -10.51, -10.3, -10.01, -10.01, -10.01, -9.72, -9.72, -9.48, -9.48, -9.48, -9.48, -9.17, -8.87, -8.58, -8.24, -7.96, -7.6, -7.89, -7.51, -7.51, -7.09, -7.09, -6.63, -6.63, -6.63, -6.63, -5.65, -6.15, -5.47, -6.53, -6.53, -5.68, -5.1, -4.58, -4.17, -4.3, -3.82, -3.08, -2.23, -1.33, 0.0, 1.33, 1.39, 1.33, 2.33, 2.02, 3.08, 3.08, 4.18, 4.18, 4.54, 4.8, 4.6, 4.8, 4.8, 5.32, 4.05, 4.23, 3.77, 3.77, 3.19, 3.77, 3.53, 2.42, 1.33, 0.0, 0.0, 1.83, 4.48, 5.0, 3.34, 2.65, 1.87, 3.35, 3.88, 5.2, 7.69, 8.58, 12.57, 16.99, -0.0, -6.14, -9.92, -14.79, -16.09, -13.59, -2.81, 0.0, 0.0, -2.2, -2.28, 2.81, 11.44, 13.59, 14.75, 14.75, -10.51, -10.51, -10.15, -9.94, -9.94, -9.66, -10.01, -10.01, -9.72, -9.17, -9.48, -9.17, -9.17, -8.87, -8.87, -8.87, -8.24, -7.96, -7.89, -7.89, -7.51, -7.51, -7.09, -7.09, -7.09, -6.63, -6.63, -6.63, -6.35, -5.65, -5.2, -5.47, -5.77, -6.33, -6.33, -5.51, -4.87, -5.2, -4.62, -3.98, -3.39, -1.14, 0.0, 0.0, 1.33, 1.14, 1.14, 1.14, 2.33, 2.33, 3.39, 3.53, 4.8, 4.6, 4.6, 4.6, 4.6, 4.4, 4.6, 3.77, 4.65, 4.15, 3.53, 3.53, 3.61, 2.6, 2.6, 1.33, 0.0, 2.06, 3.96, 3.44, 1.77, 0.0, 1.58, 3.43, 5.16, 6.02, 4.97, 4.11, 7.2, 14.79, 16.54, -0.0, -9.92, -14.94, -16.09, -14.11, -4.52, 0.0, 0.0, 0.0, 0.0, 7.44, 13.23, 14.18, 14.75, 14.75, -10.15, -10.15, -10.15, -9.94, -9.94, -9.66, -9.66, -10.01, -9.72, -9.46, -9.17, -9.17, -9.17, -8.87, -8.87, -8.56, -8.24, -8.24, -7.95, -7.61, -7.89, -7.51, -7.51, -7.09, -6.8, -6.8, -6.35, -6.35, -6.35, -6.08, -5.4, -5.2, -4.92, -5.77, -6.09, -6.45, -5.86, -5.2, -4.62, -4.15, -3.08, -2.23, 0.0, 0.0, 0.0, 0.0, 0.0, 0.0, 1.14, 2.33, 3.39, 3.53, 4.8, 4.6, 4.8, 4.99, 3.99, 3.99, 3.99, 3.61, 3.45, 5.98, 5.52, 3.53, 3.53, 3.53, 2.6, 2.71, 2.42, 2.62, 2.45, 3.81, 1.77, 1.3, 1.4, 2.84, 4.03, 3.84, 2.58, 0.0, -5.51, 0.0, 15.65, 14.42, -0.0, -13.7, -14.75, -10.43, 0.0, 0.0, 2.06, 2.06, 5.6, 12.14, 12.96, 12.96, 14.6, 14.6, -10.15, -10.15, -10.15, -9.94, -9.94, -9.66, -9.66, -10.01, -9.72, -9.72, -9.17, -9.17, -9.17, -9.17, -8.87, -8.56, -8.24, -8.24, -7.95, -7.61, -7.61, -7.24, -7.51, -7.51, -6.8, -6.8, -6.8, -6.35, -6.35, -6.35, -6.35, -5.65, -4.95, -4.73, -5.0, -5.63, -6.0, -5.35, -5.35, -5.0, -3.08, -2.33, 0.0, 0.0, 0.0, 0.0, 0.0, 0.0, 1.14, 2.33, 2.6, 3.77, 4.6, 4.36, 4.99, 4.78, 4.78, 3.99, 3.99, 3.25, 3.61, 3.14, 3.39, 2.49, 2.23, 1.58, 2.49, 2.33, 1.23, 1.23, 1.83, 1.43, 1.94, 2.58, 1.28, 1.16, 1.16, 1.4, 0.0, -2.38, -15.99, -11.38, 5.8, 12.3, 12.72, 0.0, 0.0, 3.04, 4.65, 4.1, 5.8, 7.78, 10.37, 12.71, 12.52, 12.96, 13.72, 13.72, -10.41, -10.41, -10.15, -9.94, -9.94, -9.94, -9.66, -10.01, -10.01, -9.72, -9.46, -9.17, -9.17, -9.17, -8.87, -8.56, -8.24, -7.95, -7.95, -7.61, -7.61, -7.61, -7.24, -7.24, -6.96, -6.56, -6.56, -6.56, -6.56, -6.12, -6.12, -6.12, -5.65, -4.95, -4.48, -5.0, -5.0, -5.35, -5.75, -5.0, -3.98, -2.33, -1.14, 0.0, 0.0, 0.0, 0.0, 0.0, 1.14, 2.6, 3.77, 4.8, 4.18, 5.21, 4.4, 4.4, 3.65, 3.49, 2.83, 3.11, 3.11, 2.04, 1.69, 1.22, 1.18, 1.58, 1.09, 0.0, 0.0, 0.0, 0.0, 1.43, 1.94, 3.68, 1.5, 0.0, 0.0, 0.0, 0.0, -5.42, -15.62, -0.0, 7.44, 9.66, 11.84, 12.96, 11.99, 7.78, 6.67, 5.8, 6.67, 9.48, 12.45, 13.41, 12.96, 12.96, 13.15, 13.23, -10.41, -10.41, -10.15, -9.94, -9.94, -9.94, -9.66, -9.66, -10.01, -9.72, -9.46, -9.46, -9.46, -9.17, -8.56, -8.56, -8.56, -7.95, -7.95, -7.95, -7.61, -7.61, -7.61, -7.24, -6.96, -6.96, -6.56, -6.56, -6.56, -6.56, -6.12, -6.12, -5.65, -5.44, -5.2, -4.73, -4.4, -5.0, -4.62, -4.8, -3.98, -3.39, -1.14, 0.0, 0.0, 0.0, 0.0, 0.0, 1.28, 3.77, 4.18, 4.99, 4.6, 4.6, 4.4, 3.49, 3.21, 3.21, 2.7, 2.83, 1.93, 2.04, 1.76, 1.16, 1.09, 0.0, 0.0, 0.0, 0.0, 0.0, 1.23, 2.13, 2.09, 2.65, 4.73, 1.62, 0.0, -2.31, -4.42, -8.17, -10.19, 0.0, 14.11, 13.19, 13.59, 13.41, 12.39, 8.31, 4.98, 6.9, 9.48, 10.73, 12.45, 13.41, 13.41, 12.96, 12.72, 13.15, -10.41, -10.41, -10.41, -9.94, -9.94, -9.94, -9.66, -9.66, -10.01, -10.01, -9.13, -9.46, -9.46, -9.13, -8.85, -8.85, -8.85, -8.24, -7.95, -7.95, -7.61, -7.61, -7.61, -7.61, -6.96, -6.96, -6.96, -6.56, -6.56, -6.56, -6.12, -6.4, -6.4, -5.92, -5.2, -4.66, -4.73, -4.4, -4.01, -4.44, -3.98, -2.95, -2.23, 0.0, 0.0, 0.89, 0.0, 1.18, 3.25, 4.18, 4.4, 4.4, 3.88, 3.21, 3.21, 3.21, 3.06, 2.35, 2.47, 1.68, 1.93, 1.84, 0.76, 0.0, 0.0, 0.0, 0.0, 0.0, 1.18, 1.23, 1.23, 1.28, 1.96, 1.94, 3.86, 7.89, 2.19, -4.62, -8.58, -9.02, -8.05, 9.48, 13.31, 13.41, 12.96, 13.86, 12.79, 8.85, 7.36, 8.31, 11.09, 12.39, 12.87, 13.44, 13.41, 12.72, 12.3, 12.72, -10.41, -10.41, -10.23, -9.94, -9.94, -9.94, -9.94, -9.66, -9.66, -9.42, -9.42, -9.13, -9.13, -9.13, -8.85, -8.85, -8.85, -8.53, -8.24, -7.95, -7.95, -7.61, -7.61, -7.61, -6.96, -6.96, -6.96, -6.96, -6.56, -6.56, -6.56, -6.16, -6.16, -5.7, -5.7, -5.2, -4.92, -4.15, -4.4, -3.85, -3.39, -2.71, -2.02, -1.02, 0.0, 0.0, 1.84, 2.95, 3.65, 3.36, 3.88, 3.21, 3.21, 3.06, 3.06, 2.35, 2.23, 2.35, 1.6, 1.68, 1.68, 0.93, 0.0, 0.0, 0.0, 0.0, 0.0, 0.0, 1.28, 1.23, 2.52, 1.28, 0.0, 0.0, 1.94, 7.22, 12.35, 5.35, -9.8, -10.37, 0.0, 12.0, 12.11, 12.25, 13.23, 13.86, 12.79, 10.43, 7.59, 8.58, 11.44, 12.79, 12.87, 13.44, 12.72, 12.3, 12.3, 12.3, -9.86, -9.86, -10.23, -10.23, -9.94, -9.94, -9.94, -9.66, -9.42, -9.42, -9.42, -9.13, -9.13, -8.85, -8.85, -8.85, -8.53, -8.53, -8.24, -7.95, -7.95, -7.95, -7.61, -7.61, -7.33, -6.96, -6.96, -6.96, -6.96, -6.56, -6.31, -6.16, -6.16, -5.7, -5.98, -5.47, -5.47, -4.92, -4.15, -3.76, -3.16, -2.6, -2.49, -1.84, -0.97, 0.0, 1.69, 2.39, 2.97, 2.97, 2.97, 2.17, 2.17, 2.17, 2.06, 2.06, 1.32, 1.4, 1.47, 1.6, 0.85, 0.0, 0.0, 0.0, 0.0, 1.39, 1.69, 0.0, 1.28, 2.42, 2.52, 0.0, 0.0, -1.38, 0.0, 2.28, 8.14, 16.82, 12.59, 6.22, 10.91, 12.64, 13.36, 11.77, 11.5, 13.44, 13.44, 11.44, 7.59, 8.58, 12.79, 14.03, 12.87, 11.99, 12.3, 12.3, 12.3, 12.3, -9.86, -9.86, -9.86, -9.86, -9.94, -9.94, -9.94, -9.59, -9.71, -9.42, -9.42, -9.42, -9.13, -8.85, -8.85, -8.85, -8.53, -8.53, -8.24, -8.24, -7.95, -7.95, -7.61, -7.61, -7.33, -7.33, -6.96, -6.96, -6.96, -6.31, -6.31, -6.16, -6.16, -5.7, -5.98, -5.47, -5.47, -4.92, -4.32, -4.4, -3.76, -3.16, -2.41, -1.76, -0.89, 0.0, 0.0, 0.82, 1.54, 1.47, 1.47, 1.47, 1.47, 1.47, 1.4, 1.4, 1.32, 1.32, 0.71, 0.74, 0.81, 0.0, 0.0, 0.0, 0.0, 1.62, 2.82, 1.76, 2.49, 2.42, 1.23, 0.0, -1.16, -2.54, -2.63, 0.0, 3.2, 7.49, 11.86, 12.19, 11.56, 12.72, 10.56, 8.9, 10.43, 13.86, 13.57, 10.12, 6.4, 10.12, 13.44, 13.44, 12.39, 11.99, 11.6, 12.58, 12.58, 12.58, -9.86, -9.86, -9.86, -9.86, -9.86, -9.59, -9.59, -9.37, -9.37, -9.08, -9.08, -9.42, -8.85, -8.85, -8.85, -8.53, -8.53, -8.53, -8.24, -8.24, -7.95, -7.95, -7.95, -7.89, -7.6, -7.6, -7.33, -6.96, -6.96, -6.31, -6.58, -6.58, -6.16, -6.16, -5.98, -5.98, -5.47, -4.92, -5.2, -4.4, -3.76, -2.95, -2.41, -1.63, -0.89, -0.89, 0.0, 0.0, 0.75, 0.75, 1.43, 1.43, 1.36, 1.36, 1.36, 1.4, 1.4, 0.67, 0.67, 0.71, 0.0, 0.0, 0.0, 0.0, 0.0, 1.62, 2.7, 2.04, 3.25, 1.18, 0.0, -1.14, -2.19, -2.45, -2.4, 0.0, 1.34, 2.79, 6.7, 9.47, 10.27, 11.99, 9.31, 5.4, 9.42, 15.2, 14.75, 8.18, 8.18, 11.16, 14.3, 10.41, 10.79, 11.6, 11.6, 12.27, 12.27, 12.27, -9.86, -9.86, -9.86, -9.86, -9.86, -9.37, -9.37, -9.37, -9.37, -9.37, -9.08, -9.08, -8.82, -8.53, -8.53, -8.53, -8.53, -8.53, -8.53, -8.24, -8.24, -7.95, -7.95, -7.95, -7.6, -7.6, -7.33, -6.96, -6.96, -6.97, -6.58, -6.58, -6.16, -6.16, -5.98, -5.98, -5.47, -5.77, -5.2, -4.58, -3.76, -3.07, -3.29, -2.41, -1.63, -0.82, 0.0, 0.0, 0.0, 0.75, 0.75, 0.72, 0.72, 0.69, 0.69, 0.65, 0.65, 0.62, 0.67, 0.0, 0.0, 0.0, 0.0, 0.0, 0.0, 0.0, 0.0, 0.0, 0.0, 0.0, -1.02, -1.07, -1.16, -1.25, -1.21, 0.0, 0.0, 1.23, 2.72, 5.65, 9.15, 11.07, 7.53, 3.22, 20.12, 11.7, 16.54, 7.2, 6.4, 13.86, 11.99, 10.04, 11.2, 11.2, 12.27, 11.84, 11.84, 11.84, -9.5, -9.5, -9.5, -9.86, -9.3, -9.37, -9.37, -9.37, -9.37, -9.37, -9.08, -9.08, -8.82, -8.82, -8.53, -8.53, -8.53, -8.53, -8.24, -8.24, -8.24, -7.95, -7.95, -7.95, -7.61, -7.6, -7.33, -6.96, -6.96, -6.97, -6.58, -6.58, -6.16, -6.16, -5.98, -5.98, -5.47, -5.77, -5.2, -4.4, -3.76, -3.76, -3.29, -2.51, -1.63, -0.82, 0.0, 0.0, 0.0, 0.79, 0.75, 0.72, 0.72, 0.69, 0.65, 0.65, 0.65, 0.0, 0.0, 0.0, 0.0, 0.0, 0.0, 0.0, 0.0, 0.0, 0.0, 0.0, 0.0, -1.09, -1.02, -1.11, -1.16, -1.13, 0.0, 0.0, 0.0, 1.17, 2.45, 3.72, 5.52, 9.31, 10.79, 0.0, -0.0, -0.0, 0.0, 0.0, 9.8, 12.96, 11.87, 11.87, 11.71, 10.8, 11.84, 12.07, 12.07, 12.07, -9.3, -9.3, -9.3, -9.3, -9.3, -9.02, -9.02, -9.37, -9.37, -9.37, -9.37, -9.08, -9.08, -8.82, -8.82, -8.53, -8.53, -8.53, -8.24, -8.24, -8.24, -7.95, -7.95, -7.61, -7.61, -7.33, -7.33, -6.96, -6.96, -6.97, -6.58, -6.58, -6.58, -6.16, -6.45, -5.98, -5.47, -5.26, -5.0, -4.4, -3.76, -3.76, -3.07, -2.34, -1.58, -0.76, 0.0, 0.0, 0.0, 0.0, 0.0, 0.0, 0.67, 0.64, 0.0, 0.0, 0.0, 0.0, 0.0, 0.0, 0.0, 0.0, 0.0, -0.81, -0.89, 0.0, 0.0, 0.0, 0.0, 0.0, 0.0, 0.0, 0.0, 0.0, 0.0, 0.0, 0.0, 0.0, 2.43, 3.79, 5.23, 7.74, 11.8, 0.0, -6.51, -0.0, 0.0, 9.17, 12.96, 12.52, 12.52, 11.45, 11.28, 10.84, 10.96, 10.73, 10.73, 10.73, -9.3, -9.3, -9.3, -9.3, -9.3, -9.02, -9.02, -9.02, -9.37, -9.37, -9.37, -9.08, -8.82, -8.82, -8.82, -8.53, -8.53, -8.24, -8.24, -8.24, -8.24, -8.24, -7.95, -7.61, -7.61, -7.61, -7.33, -6.96, -6.97, -6.97, -6.58, -6.58, -6.58, -6.45, -6.45, -5.98, -5.26, -5.26, -4.73, -4.4, -3.76, -3.76, -3.07, -2.34, -1.58, -0.8, -0.76, 0.0, 0.0, 0.0, 0.0, 0.0, 0.0, 0.0, 0.0, 0.0, 0.0, 0.0, 0.0, 0.0, 0.0, 0.0, -0.67, -0.77, -1.67, -0.99, 0.0, 0.0, 0.0, 0.0, 0.0, -0.93, -1.01, -1.09, -1.13, 0.0, 0.0, 0.0, 2.56, 3.88, 4.12, 6.84, 9.0, 0.0, -5.44, -0.0, 10.73, 9.2, 11.03, 12.52, 12.07, 11.62, 10.41, 9.97, 9.83, 9.39, 9.39, 9.39, -9.3, -9.3, -9.3, -9.3, -9.3, -9.02, -9.02, -9.02, -9.02, -9.37, -9.37, -8.82, -8.82, -8.82, -8.82, -8.82, -8.53, -8.24, -8.24, -8.24, -8.24, -8.24, -7.61, -7.61, -7.61, -7.61, -7.61, -7.24, -6.97, -6.97, -6.58, -6.58, -6.16, -6.2, -5.75, -5.75, -5.26, -5.26, -4.73, -4.15, -3.53, -3.76, -3.07, -2.34, -1.58, -1.58, -0.76, -0.76, 0.0, 0.0, 0.0, 0.0, 0.0, 0.0, 0.0, 0.0, 0.0, 0.0, 0.0, 0.0, 0.0, -0.58, -0.63, -1.44, -1.44, -0.99, -0.99, 0.0, 0.0, 0.0, -0.89, -1.76, -1.76, -2.0, -1.09, -1.13, 0.0, 0.0, 1.25, 2.64, 4.24, 5.48, 6.35, 4.55, -0.0, 5.94, 12.79, 10.73, 10.41, 10.84, 11.62, 11.62, 10.96, 10.52, 10.28, 9.83, 9.83, 9.83, -9.3, -8.94, -9.08, -9.08, -9.08, -8.78, -8.78, -9.02, -8.78, -8.78, -8.78, -8.82, -8.82, -8.82, -8.82, -8.82, -8.82, -8.24, -8.24, -8.24, -8.24, -8.24, -7.33, -7.33, -7.33, -7.61, -7.24, -6.97, -6.97, -6.58, -6.33, -6.33, -5.92, -6.2, -5.75, -5.75, -5.26, -4.73, -4.73, -4.15, -4.15, -3.76, -3.07, -2.34, -2.34, -1.58, -1.52, -0.76, -0.76, -0.68, 0.0, 0.0, 0.0, 0.0, 0.0, 0.0, 0.0, 0.0, 0.0, -0.62, -0.62, -0.58, -0.58, -1.25, -2.0, -1.4, -1.04, -1.04, -0.93, 0.0, 0.0, -1.02, -2.02, -2.83, -2.94, -2.08, -1.13, 0.0, 1.33, 1.38, 2.81, 2.81, 3.1, 6.31, 10.13, 11.41, 11.38, 11.45, 10.73, 10.41, 10.96, 10.96, 11.4, 11.18, 10.73, 9.74, 9.74, 9.74, -8.94, -8.94, -8.73, -9.08, -8.78, -8.78, -8.78, -8.78, -8.78, -8.78, -8.78, -8.5, -8.5, -8.82, -8.82, -8.5, -8.22, -7.93, -8.24, -8.24, -8.24, -7.9, -7.33, -7.33, -7.33, -6.97, -6.97, -6.97, -6.97, -6.33, -6.33, -5.92, -5.92, -5.75, -5.75, -5.26, -5.26, -4.73, -4.73, -4.15, -4.15, -3.76, -3.76, -3.07, -2.34, -2.19, -1.42, -1.42, -0.71, -0.68, -0.68, 0.0, 0.0, 0.0, 0.0, 0.0, 0.0, 0.0, -0.57, -0.57, -0.58, -0.58, -1.16, -1.25, -2.0, -2.18, -2.04, -2.04, -0.98, 0.0, 0.0, 0.0, -1.02, -2.23, -3.82, -3.21, -2.37, 0.0, 0.0, 0.0, 1.33, 1.38, 1.47, 15.13, 8.76, 8.8, 9.17, 9.17, 11.03, 10.28, 11.18, 11.18, 11.62, 11.62, 10.58, 9.89, 9.89, 9.89, -8.73, -8.73, -8.73, -9.08, -8.78, -8.78, -8.78, -8.78, -8.78, -8.78, -8.78, -8.5, -8.5, -8.5, -8.5, -8.22, -8.22, -7.93, -7.93, -7.93, -7.93, -7.61, -7.61, -7.33, -6.97, -6.97, -6.97, -6.97, -6.33, -6.33, -6.33, -5.92, -5.92, -5.75, -5.75, -5.26, -5.26, -4.73, -4.73, -4.15, -4.15, -3.76, -3.76, -3.07, -2.34, -2.19, -2.19, -1.42, -1.42, -0.68, -0.68, -0.65, 0.0, 0.0, 0.0, -0.61, -0.61, -0.61, -0.57, -0.57, -0.54, -1.16, -1.16, -1.16, -1.84, -2.6, -2.18, -1.49, -1.02, 0.0, 0.0, 0.0, 0.0, 0.0, 0.0, -2.33, -1.16, 0.0, 0.0, 0.0, 0.0, 0.0, 4.45, -0.0, 3.79, 6.97, 8.43, 7.19, 10.04, 11.28, 11.18, 11.18, 10.84, 10.96, 10.18, 9.45, 9.45, 9.45, -8.94, -8.94, -8.73, -8.73, -8.78, -8.78, -8.78, -8.78, -8.78, -8.78, -8.78, -8.5, -8.5, -8.5, -8.22, -8.22, -8.22, -7.93, -7.93, -7.93, -7.93, -7.61, -7.61, -7.61, -6.97, -6.97, -6.71, -6.33, -6.33, -6.33, -5.92, -5.92, -5.48, -5.48, -5.26, -5.26, -5.26, -4.73, -4.73, -3.92, -4.15, -3.53, -3.76, -3.07, -2.88, -2.19, -2.19, -2.1, -1.42, -1.42, -1.36, -0.68, -0.67, -0.67, -0.64, -0.61, -0.61, -0.61, -0.57, -1.14, -1.14, -1.07, -1.16, -1.71, -1.95, -2.54, -2.99, -2.31, -2.02, -0.97, -0.97, 0.0, 0.0, 0.0, 0.98, 0.98, 0.0, 0.0, 0.0, 0.0, 0.0, 0.0, 3.68, -0.0, -0.0, 5.65, 6.2, 7.59, 7.59, 8.94, 10.0, 10.4, 10.4, 9.58, 10.0, 8.54, 8.54, 8.54, -8.94, -8.94, -8.73, -8.73, -8.78, -8.78, -8.78, -8.78, -8.78, -8.78, -8.78, -8.5, -8.5, -8.5, -8.22, -8.22, -8.22, -8.22, -7.93, -7.61, -7.61, -7.61, -7.61, -7.26, -6.98, -6.71, -6.33, -6.33, -6.33, -5.92, -5.92, -5.92, -5.48, -5.48, -5.26, -5.26, -4.73, -4.73, -4.73, -3.92, -4.15, -3.53, -3.39, -3.39, -2.76, -2.76, -2.1, -2.1, -2.1, -1.42, -1.36, -1.36, -0.67, -0.67, -0.64, -0.64, -0.61, -0.61, -1.14, -1.14, -1.14, -1.14, -1.69, -1.81, -1.81, -2.54, -2.9, -3.8, -2.9, -1.92, -0.97, -0.97, 0.0, 0.0, 0.0, 0.0, 0.0, 0.0, 0.0, 0.0, 0.0, 3.93, 7.04, 9.4, 4.7, 6.75, 7.2, 5.98, 5.75, 6.71, 8.22, 8.22, 9.08, 9.67, 9.7, 8.93, 8.93, 8.93, -9.21, -9.21, -8.94, -8.73, -8.78, -8.78, -8.78, -8.78, -8.78, -8.78, -8.78, -8.5, -8.5, -8.22, -8.22, -8.22, -8.22, -8.22, -7.61, -7.61, -7.61, -7.61, -7.61, -6.98, -6.98, -6.98, -6.33, -6.33, -5.69, -5.69, -5.92, -5.48, -5.48, -5.26, -5.05, -5.05, -4.73, -4.73, -4.73, -3.92, -4.15, -3.98, -3.39, -3.39, -2.76, -2.76, -2.76, -2.1, -2.1, -2.1, -1.36, -1.3, -1.24, -0.62, -0.64, -0.64, -1.2, -1.2, -1.2, -1.14, -1.14, -1.69, -1.69, -1.69, -2.37, -2.69, -2.69, -3.51, -4.37, -3.82, -2.71, -1.92, -1.84, -0.98, 0.0, -0.98, -1.93, -1.02, -2.33, -1.28, 1.61, 3.36, 5.49, 6.08, 24.6, 7.61, 5.28, 6.8, 5.0, 5.0, 6.45, 8.22, 9.27, 8.93, 9.09, 9.48, 9.48, 9.48, -9.21, -9.21, -8.94, -8.73, -9.08, -8.78, -8.78, -8.78, -8.78, -8.78, -8.78, -8.5, -8.22, -8.22, -8.22, -8.22, -8.22, -8.22, -7.91, -7.61, -7.32, -7.32, -6.98, -6.98, -6.98, -6.61, -6.61, -6.34, -5.69, -5.69, -5.69, -5.26, -5.26, -5.52, -5.05, -5.05, -4.54, -4.73, -4.48, -4.48, -4.48, -3.98, -3.98, -3.39, -2.76, -2.76, -2.76, -2.1, -2.1, -2.1, -1.36, -1.3, -1.3, -1.24, -1.18, -1.18, -1.2, -1.2, -1.2, -1.2, -1.14, -1.69, -1.69, -1.78, -2.5, -2.5, -3.44, -3.7, -4.28, -4.99, -3.82, -2.71, -1.93, -0.93, -0.93, -0.93, -0.93, -0.93, -2.23, 0.0, 1.38, 2.91, 3.2, 4.23, 16.75, 8.76, 5.4, 4.3, 3.44, 4.58, 5.77, 7.56, 8.53, 8.53, 8.82, 9.46, 9.46, 9.46, -9.21, -9.21, -9.21, -8.73, -8.73, -8.78, -8.78, -8.78, -8.78, -8.78, -8.78, -8.52, -8.22, -8.22, -8.22, -8.22, -8.22, -8.22, -7.6, -7.32, -7.32, -7.32, -6.98, -6.98, -6.61, -6.61, -6.34, -6.34, -5.95, -5.95, -5.95, -5.52, -5.52, -5.52, -5.05, -5.05, -4.54, -4.3, -4.3, -4.3, -4.3, -3.98, -3.39, -3.39, -2.76, -2.76, -2.76, -2.76, -2.1, -2.1, -2.02, -1.3, -1.3, -1.24, -1.18, -1.18, -1.12, -1.12, -1.2, -1.2, -1.78, -1.78, -1.78, -1.78, -2.33, -2.5, -2.63, -3.44, -4.28, -4.0, -3.37, -2.0, -0.93, -0.93, 0.0, 0.0, 0.0, 0.0, 0.0, 0.0, 1.38, 1.48, 0.0, 0.0, 7.21, 5.44, -0.0, -0.0, 1.58, 4.24, 5.08, 6.7, 7.51, 9.17, 9.16, 9.66, 9.66, 9.66, -9.21, -9.21, -9.21, -9.01, -8.73, -8.73, -8.45, -8.45, -8.45, -8.45, -8.19, -8.52, -8.22, -8.22, -8.22, -8.22, -7.9, -7.9, -7.6, -7.6, -7.32, -7.32, -6.98, -6.98, -6.61, -6.61, -6.34, -6.34, -5.95, -5.95, -5.95, -5.52, -5.52, -5.52, -5.05, -5.05, -5.05, -4.3, -4.3, -4.3, -3.77, -3.77, -3.39, -3.39, -3.39, -2.76, -2.76, -2.76, -2.1, -2.1, -2.02, -1.93, -1.3, -1.24, -1.24, -1.18, -1.12, -1.12, -1.67, -1.78, -1.78, -1.78, -1.78, -1.78, -2.33, -2.5, -2.63, -3.44, -3.44, -4.0, -3.93, -2.94, -0.93, 0.0, 0.0, 0.0, 0.0, 0.0, 0.0, 0.0, 0.0, 0.0, 0.0, 0.0, 0.0, -0.0, -2.72, -2.0, -0.0, 2.72, 4.28, 5.6, 6.21, 7.68, 8.85, 8.53, 8.53, 8.53, -9.21, -9.21, -9.21, -9.01, -8.73, -8.73, -8.73, -8.45, -8.45, -8.45, -8.19, -8.19, -8.19, -7.9, -7.9, -7.9, -7.9, -7.6, -7.6, -7.6, -7.6, -6.98, -6.98, -6.98, -6.61, -6.61, -6.34, -6.34, -5.95, -5.95, -5.95, -5.52, -5.52, -5.52, -5.05, -5.05, -5.05, -4.8, -4.3, -4.3, -3.77, -3.2, -3.39, -3.39, -3.39, -2.76, -2.76, -2.76, -2.76, -2.65, -2.02, -1.93, -1.93, -1.84, -1.84, -1.75, -1.75, -1.67, -1.67, -1.67, -1.78, -1.78, -1.78, -1.78, -2.33, -2.33, -2.63, -3.21, -3.21, -4.0, -4.2, -3.37, -1.97, 0.0, 0.0, 0.0, 0.0, 0.0, -1.02, -1.18, -2.52, -1.43, -1.53, 0.0, 0.0, 0.0, -8.97, -4.55, -0.0, 2.89, 3.98, 6.0, 6.67, 7.18, 8.32, 8.85, 8.85, 8.85, -9.21, -9.21, -9.21, -9.01, -8.73, -8.73, -8.73, -8.45, -8.45, -8.45, -8.19, -8.19, -8.19, -7.9, -7.9, -7.9, -7.9, -7.6, -7.6, -7.6, -7.6, -6.98, -6.98, -6.98, -6.61, -6.61, -6.34, -6.34, -5.95, -5.95, -5.95, -5.52, -5.52, -5.52, -5.05, -5.05, -5.05, -4.8, -4.3, -4.3, -3.77, -3.2, -3.39, -3.39, -3.39, -2.76, -2.76, -2.76, -2.76, -2.65, -2.02, -1.93, -1.93, -1.84, -1.84, -1.75, -1.75, -1.67, -1.67, -1.67, -1.78, -1.78, -1.78, -1.78, -2.33, -2.33, -2.63, -3.21, -3.21, -4.0, -4.2, -3.37, -1.97, 0.0, 0.0, 0.0, 0.0, 0.0, -1.02, -1.18, -2.52, -2.72, -1.48, 0.0, 2.0, 2.5, 0.0, -0.0, -0.0, 1.6, 4.0, 5.31, 6.2, 6.9, 7.68, 8.02, 8.02, 8.02]}]